THY198 LTFM-RJTT

Flight info

Callsign THY198
Flight time 10h 24m
Altitude 33000
Route VICEN UT380 ASMAP UL333 LATGA UT363 GURBU UA4 ERZ UB374 INDUR DCT PEMAN N161 EDATA M11 LUSAL N701 BAKUV DCT NAMAS N35 RODAR A909 TUNEK B143 KRS A480 OTBOR/K0889F330 N147 GENDI Z621 ARBOL M610 TOMGO/K0883F350 M610 RULAD/K0882S1070 A343 POSOT B215 FKG W188 LIKMI W270 DKO W69 HUR/K0878S1130 B339 LADIX W34 VAPGU W100 ORAVA W201 UNSEK A326 DONVO G597 AGAVO/N0476F370 Y644 EGOBA Y697 LANAT Y71 XAC
Aircraft B77W/H-SDE1E2E3FGHIJ2J3J4J5M1RWXY/LB1D1

Departure

Time 2026-02-18 23:38
Airport İstanbul Airport (LTFM)

Arrival

Time 2026-02-19 10:02
Airport Tokyo Haneda International Airport (RJTT)
Time Latitude Longitude Altitude Speed Heading
2026-02-18 23:10 41.26792 28.73766 339 ft 0 kts 269°
2026-02-18 23:25 41.26792 28.73780 339 ft 3 kts 269°
2026-02-18 23:25 41.26793 28.73807 337 ft 3 kts 269°
2026-02-18 23:26 41.26793 28.73832 333 ft 2 kts 269°
2026-02-18 23:26 41.26793 28.73853 333 ft 3 kts 289°
2026-02-18 23:26 41.26788 28.73868 333 ft 3 kts 322°
2026-02-18 23:26 41.26778 28.73875 333 ft 3 kts 354°
2026-02-18 23:27 41.26758 28.73876 333 ft 3 kts
2026-02-18 23:27 41.26741 28.73875 333 ft 1 kts 359°
2026-02-18 23:27 41.26739 28.73875 333 ft 0 kts 359°
2026-02-18 23:29 41.26740 28.73875 333 ft 1 kts 359°
2026-02-18 23:29 41.26764 28.73875 333 ft 6 kts 359°
2026-02-18 23:30 41.26822 28.73874 336 ft 11 kts 359°
2026-02-18 23:30 41.26910 28.73872 334 ft 15 kts 359°
2026-02-18 23:30 41.27004 28.73869 334 ft 11 kts 353°
2026-02-18 23:30 41.27049 28.73792 336 ft 11 kts 278°
2026-02-18 23:31 41.27049 28.73686 338 ft 12 kts 269°
2026-02-18 23:31 41.27048 28.73571 335 ft 13 kts 269°
2026-02-18 23:31 41.27046 28.73446 335 ft 14 kts 269°
2026-02-18 23:31 41.27045 28.73310 336 ft 15 kts 270°
2026-02-18 23:32 41.27042 28.73168 339 ft 15 kts 268°
2026-02-18 23:32 41.27041 28.73038 339 ft 13 kts 276°
2026-02-18 23:32 41.27100 28.72985 338 ft 12 kts 355°
2026-02-18 23:32 41.27210 28.72981 333 ft 21 kts 359°
2026-02-18 23:33 41.27578 28.72973 336 ft 28 kts 359°
2026-02-18 23:33 41.27770 28.72968 334 ft 28 kts 359°
2026-02-18 23:33 41.27961 28.72964 337 ft 28 kts 359°
2026-02-18 23:34 41.28154 28.72959 334 ft 28 kts 359°
2026-02-18 23:34 41.28345 28.72955 334 ft 28 kts 359°
2026-02-18 23:34 41.28537 28.72951 338 ft 28 kts 359°
2026-02-18 23:34 41.28729 28.72946 335 ft 28 kts 359°
2026-02-18 23:35 41.28918 28.72941 334 ft 28 kts 359°
2026-02-18 23:35 41.29110 28.72937 336 ft 28 kts 359°
2026-02-18 23:35 41.29302 28.72933 335 ft 28 kts 359°
2026-02-18 23:35 41.29446 28.72928 337 ft 11 kts 354°
2026-02-18 23:36 41.29488 28.72856 336 ft 11 kts 280°
2026-02-18 23:36 41.29490 28.72757 335 ft 11 kts 269°
2026-02-18 23:36 41.29489 28.72657 339 ft 11 kts 269°
2026-02-18 23:36 41.29488 28.72558 338 ft 11 kts 269°
2026-02-18 23:37 41.29454 28.72453 337 ft 5 kts 182°
2026-02-18 23:37 41.29341 28.72452 338 ft 38 kts 180°
2026-02-18 23:37 41.28841 28.72461 337 ft 105 kts 179°
2026-02-18 23:38 41.27891 28.72483 337 ft 164 kts 179°
2026-02-18 23:38 41.26630 28.72513 507 ft 191 kts 182°
2026-02-18 23:38 41.25316 28.72531 1367 ft 188 kts 182°
2026-02-18 23:38 41.23995 28.72606 1989 ft 191 kts 180°
2026-02-18 23:39 41.22657 28.72690 2318 ft 197 kts 181°
2026-02-18 23:39 41.21255 28.72793 2586 ft 207 kts 181°
2026-02-18 23:39 41.19780 28.72891 2910 ft 216 kts 181°
2026-02-18 23:39 41.18250 28.72728 3115 ft 225 kts 205°
2026-02-18 23:40 41.16966 28.71577 3547 ft 222 kts 225°
2026-02-18 23:40 41.15824 28.70109 3893 ft 235 kts 224°
2026-02-18 23:40 41.14595 28.68604 4281 ft 247 kts 224°
2026-02-18 23:40 41.13324 28.67065 4870 ft 249 kts 222°
2026-02-18 23:41 41.10034 28.65893 5902 ft 261 kts 175°
2026-02-18 23:41 41.08220 28.66217 6488 ft 264 kts 175°
2026-02-18 23:41 41.06381 28.66550 7045 ft 267 kts 175°
2026-02-18 23:42 41.04540 28.66885 7631 ft 268 kts 175°
2026-02-18 23:42 41.02710 28.67217 8195 ft 269 kts 176°
2026-02-18 23:42 41.00851 28.67552 8756 ft 271 kts 176°
2026-02-18 23:42 40.99020 28.67879 9299 ft 274 kts 176°
2026-02-18 23:43 40.97121 28.68216 9859 ft 276 kts 176°
2026-02-18 23:43 40.95261 28.68910 10208 ft 287 kts 151°
2026-02-18 23:43 40.93810 28.70848 10338 ft 312 kts 120°
2026-02-18 23:43 40.93066 28.73628 10482 ft 330 kts 105°
2026-02-18 23:44 40.92538 28.76671 10627 ft 349 kts 104°
2026-02-18 23:44 40.92015 28.79905 10771 ft 369 kts 103°
2026-02-18 23:44 40.91663 28.82137 10928 ft 379 kts 103°
2026-02-18 23:44 40.91118 28.85603 11363 ft 390 kts 103°
2026-02-18 23:45 40.89985 28.92740 12610 ft 404 kts 102°
2026-02-18 23:45 40.89466 28.95957 13240 ft 408 kts 102°
2026-02-18 23:45 40.88863 28.99660 13905 ft 415 kts 102°
2026-02-18 23:46 40.88251 29.03396 14525 ft 420 kts 102°
2026-02-18 23:46 40.87629 29.07178 15216 ft 422 kts 101°
2026-02-18 23:46 40.86998 29.10988 15919 ft 426 kts 101°
2026-02-18 23:46 40.86362 29.14831 16552 ft 431 kts 101°
2026-02-18 23:47 40.85723 29.18678 17185 ft 435 kts 101°
2026-02-18 23:47 40.85070 29.22597 17845 ft 439 kts 101°
2026-02-18 23:47 40.84409 29.26558 18486 ft 443 kts 101°
2026-02-18 23:47 40.83740 29.30558 19023 ft 448 kts 101°
2026-02-18 23:48 40.83063 29.34597 19565 ft 452 kts 101°
2026-02-18 23:48 40.82379 29.38664 20121 ft 456 kts 101°
2026-02-18 23:48 40.81687 29.42775 20682 ft 460 kts 101°
2026-02-18 23:48 40.80988 29.46916 21195 ft 464 kts 101°
2026-02-18 23:49 40.79565 29.55314 22212 ft 473 kts 102°
2026-02-18 23:49 40.78842 29.59563 22750 ft 476 kts 102°
2026-02-18 23:49 40.78111 29.63852 23220 ft 481 kts 102°
2026-02-18 23:50 40.77381 29.68125 23685 ft 485 kts 102°
2026-02-18 23:50 40.76635 29.72481 24125 ft 488 kts 102°
2026-02-18 23:50 40.75884 29.76854 24594 ft 490 kts 102°
2026-02-18 23:50 40.75129 29.81239 25034 ft 492 kts 102°
2026-02-18 23:51 40.74367 29.85660 25435 ft 495 kts 102°
2026-02-18 23:51 40.73600 29.90094 25852 ft 498 kts 102°
2026-02-18 23:51 40.72827 29.94555 26276 ft 500 kts 102°
2026-02-18 23:51 40.72049 29.99031 26666 ft 503 kts 102°
2026-02-18 23:52 40.71265 30.03532 27029 ft 506 kts 102°
2026-02-18 23:52 40.70472 30.08075 27412 ft 508 kts 102°
2026-02-18 23:52 40.69675 30.12629 27825 ft 510 kts 103°
2026-02-18 23:52 40.68873 30.17200 28187 ft 512 kts 103°
2026-02-18 23:53 40.67259 30.26374 28849 ft 517 kts 103°
2026-02-18 23:53 40.66498 30.31019 29180 ft 519 kts 99°
2026-02-18 23:53 40.66025 30.35728 29500 ft 519 kts 95°
2026-02-18 23:54 40.65656 30.40454 29912 ft 519 kts 95°
2026-02-18 23:54 40.65300 30.45111 30330 ft 517 kts 95°
2026-02-18 23:54 40.64927 30.49823 30634 ft 517 kts 96°
2026-02-18 23:54 40.64534 30.54553 30825 ft 520 kts 96°
2026-02-18 23:55 40.64126 30.59308 31059 ft 522 kts 96°
2026-02-18 23:55 40.63714 30.64044 31329 ft 523 kts 96°
2026-02-18 23:55 40.63292 30.68798 31602 ft 523 kts 97°
2026-02-18 23:55 40.62701 30.73515 31868 ft 524 kts 100°
2026-02-18 23:56 40.62109 30.78269 32126 ft 525 kts 98°
2026-02-18 23:56 40.61621 30.82792 32368 ft 525 kts 97°
2026-02-18 23:56 40.61162 30.87322 32588 ft 526 kts 97°
2026-02-18 23:56 40.60686 30.92060 32820 ft 527 kts 97°
2026-02-18 23:57 40.59684 31.01657 33036 ft 532 kts 98°
2026-02-18 23:57 40.59158 31.06489 33049 ft 535 kts 97°
2026-02-18 23:58 40.58077 31.16184 33059 ft 535 kts 97°
2026-02-18 23:58 40.56981 31.25866 33043 ft 535 kts 97°
2026-02-18 23:59 40.55881 31.35536 33039 ft 534 kts 98°
2026-02-18 23:59 40.54779 31.45196 33033 ft 533 kts 98°
2026-02-19 00:00 40.53680 31.54756 33033 ft 532 kts 98°
2026-02-19 00:00 40.52566 31.64370 33020 ft 532 kts 98°
2026-02-19 00:01 40.50877 31.78777 33025 ft 532 kts 98°
2026-02-19 00:01 40.49744 31.88383 32998 ft 532 kts 98°
2026-02-19 00:02 40.48602 31.97986 33015 ft 532 kts 99°
2026-02-19 00:02 40.47451 32.07584 33004 ft 532 kts 99°
2026-02-19 00:03 40.46289 32.17212 32993 ft 533 kts 99°
2026-02-19 00:03 40.45122 32.26811 32989 ft 533 kts 99°
2026-02-19 00:04 40.43947 32.36408 32978 ft 532 kts 99°
2026-02-19 00:04 40.42764 32.45997 32976 ft 532 kts 99°
2026-02-19 00:05 40.40989 32.60267 32974 ft 531 kts 99°
2026-02-19 00:06 40.39791 32.69819 32983 ft 531 kts 100°
2026-02-19 00:06 40.38591 32.79311 32980 ft 530 kts 100°
2026-02-19 00:07 40.37375 32.88875 32979 ft 530 kts 100°
2026-02-19 00:07 40.36153 32.98417 32981 ft 530 kts 100°
2026-02-19 00:08 40.34922 33.07956 32986 ft 531 kts 100°
2026-02-19 00:08 40.33681 33.17507 32973 ft 532 kts 101°
2026-02-19 00:09 40.31808 33.31822 32960 ft 533 kts 101°
2026-02-19 00:09 40.30542 33.41408 32946 ft 535 kts 101°
2026-02-19 00:10 40.29264 33.51026 32941 ft 536 kts 101°
2026-02-19 00:10 40.27978 33.60645 32934 ft 537 kts 101°
2026-02-19 00:11 40.26679 33.70296 32931 ft 537 kts 101°
2026-02-19 00:11 40.25381 33.79868 32933 ft 537 kts 101°
2026-02-19 00:12 40.24069 33.89492 32933 ft 537 kts 101°
2026-02-19 00:12 40.22748 33.99118 32926 ft 536 kts 101°
2026-02-19 00:13 40.20756 34.13509 32938 ft 534 kts 102°
2026-02-19 00:14 40.19421 34.23081 32936 ft 533 kts 102°
2026-02-19 00:14 40.18091 34.32553 32939 ft 532 kts 102°
2026-02-19 00:15 40.16748 34.42066 32948 ft 532 kts 102°
2026-02-19 00:15 40.15397 34.51571 32941 ft 531 kts 102°
2026-02-19 00:16 40.14039 34.61069 32955 ft 531 kts 102°
2026-02-19 00:16 40.12674 34.70559 32932 ft 531 kts 102°
2026-02-19 00:17 40.10619 34.84733 32933 ft 532 kts 102°
2026-02-19 00:17 40.09234 34.94222 32931 ft 532 kts 102°
2026-02-19 00:18 40.07840 35.03710 32949 ft 532 kts 102°
2026-02-19 00:18 40.06438 35.13196 32941 ft 532 kts 103°
2026-02-19 00:19 40.05026 35.22695 32936 ft 533 kts 103°
2026-02-19 00:19 40.03606 35.32195 32930 ft 533 kts 103°
2026-02-19 00:20 40.02182 35.41661 32928 ft 532 kts 103°
2026-02-19 00:20 40.00745 35.51158 32936 ft 532 kts 103°
2026-02-19 00:21 39.98589 35.65304 32932 ft 532 kts 103°
2026-02-19 00:22 39.97137 35.74763 32922 ft 532 kts 104°
2026-02-19 00:22 39.95678 35.84217 32933 ft 532 kts 104°
2026-02-19 00:23 39.94211 35.93672 32930 ft 532 kts 104°
2026-02-19 00:23 39.92737 36.03110 32934 ft 531 kts 104°
2026-02-19 00:24 39.91254 36.12554 32920 ft 531 kts 104°
2026-02-19 00:24 39.89775 36.21923 32921 ft 531 kts 104°
2026-02-19 00:25 39.87530 36.36048 32913 ft 531 kts 104°
2026-02-19 00:25 39.86022 36.45470 32915 ft 531 kts 105°
2026-02-19 00:26 39.84506 36.54889 32911 ft 532 kts 105°
2026-02-19 00:26 39.82991 36.64255 32904 ft 532 kts 105°
2026-02-19 00:27 39.81450 36.73734 32913 ft 532 kts 105°
2026-02-19 00:27 39.79930 36.83156 32909 ft 533 kts 103°
2026-02-19 00:28 39.79302 36.92800 32912 ft 538 kts 92°
2026-02-19 00:28 39.79877 37.02503 32925 ft 539 kts 85°
2026-02-19 00:29 39.81190 37.17002 32913 ft 540 kts 85°
2026-02-19 00:30 39.81992 37.26729 32917 ft 541 kts 86°
2026-02-19 00:30 39.82770 37.36473 32920 ft 541 kts 86°
2026-02-19 00:31 39.83418 37.44578 32924 ft 541 kts 86°
2026-02-19 00:31 39.84174 37.54339 32931 ft 541 kts 86°
2026-02-19 00:32 39.85033 37.65673 32934 ft 541 kts 86°
2026-02-19 00:32 39.85647 37.73828 32931 ft 541 kts 87°
2026-02-19 00:33 39.86731 37.88390 32940 ft 541 kts 87°
2026-02-19 00:33 39.87449 37.98158 32936 ft 541 kts 87°
2026-02-19 00:34 39.88156 38.07901 32924 ft 540 kts 88°
2026-02-19 00:34 39.88854 38.17642 32919 ft 540 kts 88°
2026-02-19 00:35 39.89544 38.27383 32920 ft 541 kts 88°
2026-02-19 00:35 39.90228 38.37156 32925 ft 542 kts 88°
2026-02-19 00:36 39.90900 38.46877 32896 ft 542 kts 88°
2026-02-19 00:36 39.91568 38.56650 32908 ft 542 kts 89°
2026-02-19 00:37 39.92555 38.71327 32904 ft 542 kts 89°
2026-02-19 00:38 39.93205 38.81129 32904 ft 543 kts 89°
2026-02-19 00:38 39.93790 38.90947 32887 ft 542 kts 92°
2026-02-19 00:39 39.93959 39.00781 32883 ft 542 kts 94°
2026-02-19 00:39 39.94099 39.10610 32921 ft 543 kts 94°
2026-02-19 00:40 39.94266 39.20413 32884 ft 543 kts 94°
2026-02-19 00:40 39.94420 39.30254 32903 ft 543 kts 94°
2026-02-19 00:41 39.94630 39.44989 32909 ft 542 kts 95°
2026-02-19 00:41 39.94761 39.54809 32907 ft 542 kts 95°
2026-02-19 00:42 39.94876 39.64642 32898 ft 542 kts 95°
2026-02-19 00:42 39.94962 39.74478 32881 ft 543 kts 96°
2026-02-19 00:43 39.95041 39.84333 32878 ft 544 kts 96°
2026-02-19 00:43 39.95121 39.94194 32863 ft 544 kts 96°
2026-02-19 00:44 39.95210 40.04015 32872 ft 545 kts 96°
2026-02-19 00:44 39.95296 40.13916 32874 ft 547 kts 96°
2026-02-19 00:45 39.95406 40.28771 32866 ft 549 kts 97°
2026-02-19 00:46 39.95470 40.38752 32858 ft 551 kts 97°
2026-02-19 00:46 39.95524 40.48760 32875 ft 551 kts 97°
2026-02-19 00:47 39.95570 40.58753 32868 ft 551 kts 97°
2026-02-19 00:47 39.95610 40.68703 32871 ft 551 kts 98°
2026-02-19 00:48 39.95640 40.78678 32871 ft 551 kts 98°
2026-02-19 00:48 39.95670 40.88661 32874 ft 550 kts 98°
2026-02-19 00:49 39.95696 41.03623 32874 ft 550 kts 98°
2026-02-19 00:49 39.95702 41.13595 32874 ft 550 kts 98°
2026-02-19 00:50 39.95833 41.23597 32879 ft 557 kts 93°
2026-02-19 00:50 39.96593 41.33679 32888 ft 560 kts 91°
2026-02-19 00:51 39.97402 41.43781 32890 ft 562 kts 92°
2026-02-19 00:52 39.98517 41.59009 32895 ft 563 kts 92°
2026-02-19 00:52 39.99238 41.69187 32914 ft 564 kts 92°
2026-02-19 00:53 40.00325 41.84436 32898 ft 565 kts 92°
2026-02-19 00:53 40.01057 41.94663 32894 ft 566 kts 92°
2026-02-19 00:54 40.01779 42.04884 32899 ft 566 kts 92°
2026-02-19 00:54 40.02489 42.15100 32905 ft 565 kts 92°
2026-02-19 00:55 40.03189 42.25320 32920 ft 566 kts 93°
2026-02-19 00:55 40.03881 42.35543 32902 ft 566 kts 93°
2026-02-19 00:56 40.04566 42.45797 32923 ft 566 kts 93°
2026-02-19 00:56 40.05214 42.56035 32919 ft 566 kts 93°
2026-02-19 00:57 40.06160 42.71419 32901 ft 567 kts 93°
2026-02-19 00:58 40.06785 42.81697 32921 ft 568 kts 94°
2026-02-19 00:58 40.07404 42.91992 32912 ft 570 kts 93°
2026-02-19 00:59 40.08012 43.02253 32911 ft 571 kts 93°
2026-02-19 00:59 40.08618 43.12599 32902 ft 571 kts 93°
2026-02-19 01:00 40.09212 43.22954 32888 ft 570 kts 93°
2026-02-19 01:00 40.09799 43.33288 32904 ft 568 kts 93°
2026-02-19 01:01 40.10648 43.48690 32867 ft 566 kts 93°
2026-02-19 01:01 40.11201 43.58952 32852 ft 566 kts 92°
2026-02-19 01:02 40.11898 43.69146 32857 ft 571 kts 86°
2026-02-19 01:02 40.13385 43.79379 32855 ft 574 kts 84°
2026-02-19 01:03 40.14969 43.89613 32849 ft 574 kts 84°
2026-02-19 01:03 40.16500 43.99840 32854 ft 573 kts 85°
2026-02-19 01:04 40.17982 44.10087 32835 ft 573 kts 85°
2026-02-19 01:04 40.19435 44.20253 32821 ft 572 kts 85°
2026-02-19 01:05 40.21619 44.35600 32827 ft 571 kts 85°
2026-02-19 01:06 40.23065 44.45823 32830 ft 571 kts 85°
2026-02-19 01:06 40.24501 44.56048 32816 ft 570 kts 85°
2026-02-19 01:07 40.25927 44.66265 32813 ft 569 kts 85°
2026-02-19 01:07 40.27329 44.76388 32812 ft 568 kts 85°
2026-02-19 01:08 40.28730 44.86573 32812 ft 568 kts 85°
2026-02-19 01:08 40.30124 44.96773 32780 ft 567 kts 85°
2026-02-19 01:09 40.32185 45.11974 32790 ft 563 kts 85°
2026-02-19 01:09 40.33542 45.22080 32779 ft 562 kts 85°
2026-02-19 01:10 40.34879 45.32100 32788 ft 562 kts 85°
2026-02-19 01:10 40.36224 45.42249 32793 ft 562 kts 85°
2026-02-19 01:11 40.37546 45.52303 32798 ft 563 kts 85°
2026-02-19 01:11 40.38874 45.62458 32789 ft 566 kts 85°
2026-02-19 01:12 40.40277 45.72647 32782 ft 568 kts 83°
2026-02-19 01:12 40.41792 45.82809 32778 ft 567 kts 83°
2026-02-19 01:13 40.44032 45.97997 32762 ft 563 kts 83°
2026-02-19 01:14 40.45480 46.08079 32766 ft 561 kts 84°
2026-02-19 01:14 40.46670 46.16432 32778 ft 560 kts 83°
2026-02-19 01:15 40.48173 46.27033 32786 ft 559 kts 84°
2026-02-19 01:15 40.49587 46.37067 32773 ft 558 kts 84°
2026-02-19 01:16 40.50990 46.47078 32780 ft 556 kts 84°
2026-02-19 01:16 40.52381 46.57079 32784 ft 557 kts 84°
2026-02-19 01:17 40.54459 46.72136 32790 ft 558 kts 84°
2026-02-19 01:17 40.55602 46.80488 32792 ft 559 kts 84°
2026-02-19 01:18 40.56973 46.90562 32796 ft 560 kts 84°
2026-02-19 01:18 40.58560 47.02310 32795 ft 561 kts 84°
2026-02-19 01:19 40.59699 47.10792 32791 ft 562 kts 85°
2026-02-19 01:20 40.60621 47.25923 32798 ft 550 kts 99°
2026-02-19 01:20 40.60240 47.35975 32798 ft 550 kts 99°
2026-02-19 01:21 40.59719 47.51082 32787 ft 551 kts 99°
2026-02-19 01:21 40.59411 47.61179 32783 ft 551 kts 99°
2026-02-19 01:22 40.59095 47.71257 32786 ft 551 kts 99°
2026-02-19 01:22 40.58763 47.81358 32778 ft 552 kts 99°
2026-02-19 01:23 40.58423 47.91436 32783 ft 551 kts 99°
2026-02-19 01:23 40.58050 48.01444 32787 ft 551 kts 100°
2026-02-19 01:24 40.57588 48.11570 32778 ft 551 kts 101°
2026-02-19 01:24 40.57115 48.21567 32808 ft 550 kts 100°
2026-02-19 01:25 40.56410 48.36640 32798 ft 550 kts 100°
2026-02-19 01:26 40.55935 48.46671 32787 ft 549 kts 100°
2026-02-19 01:26 40.55451 48.56699 32781 ft 549 kts 100°
2026-02-19 01:27 40.54960 48.66685 32784 ft 547 kts 101°
2026-02-19 01:27 40.54459 48.76673 32776 ft 546 kts 101°
2026-02-19 01:28 40.53953 48.86562 32772 ft 544 kts 101°
2026-02-19 01:28 40.53438 48.96484 32765 ft 544 kts 100°
2026-02-19 01:29 40.52650 49.11386 32768 ft 544 kts 100°
2026-02-19 01:29 40.52118 49.21303 32755 ft 543 kts 100°
2026-02-19 01:30 40.51572 49.31200 32758 ft 542 kts 100°
2026-02-19 01:30 40.51024 49.41028 32749 ft 543 kts 100°
2026-02-19 01:31 40.50471 49.50917 32756 ft 543 kts 100°
2026-02-19 01:31 40.49913 49.60825 32762 ft 543 kts 99°
2026-02-19 01:32 40.49343 49.70735 32765 ft 543 kts 99°
2026-02-19 01:32 40.48765 49.80626 32765 ft 543 kts 99°
2026-02-19 01:33 40.47883 49.95467 32768 ft 542 kts 99°
2026-02-19 01:34 40.47275 50.05275 32773 ft 540 kts 101°
2026-02-19 01:34 40.46133 50.14974 32775 ft 536 kts 105°
2026-02-19 01:35 40.44843 50.24631 32770 ft 536 kts 105°
2026-02-19 01:35 40.43576 50.34278 32763 ft 536 kts 105°
2026-02-19 01:36 40.42329 50.43940 32765 ft 537 kts 105°
2026-02-19 01:36 40.41086 50.53542 32766 ft 537 kts 105°
2026-02-19 01:37 40.39187 50.68044 32771 ft 538 kts 105°
2026-02-19 01:37 40.37911 50.77709 32774 ft 538 kts 105°
2026-02-19 01:38 40.36838 50.87438 32777 ft 544 kts 97°
2026-02-19 01:38 40.37181 50.97406 32783 ft 550 kts 84°
2026-02-19 01:39 40.38860 51.07180 32785 ft 553 kts 77°
2026-02-19 01:39 40.40759 51.16969 32786 ft 554 kts 78°
2026-02-19 01:40 40.42568 51.26794 32786 ft 554 kts 79°
2026-02-19 01:40 40.44330 51.36643 32790 ft 554 kts 79°
2026-02-19 01:41 40.45826 51.51551 32792 ft 545 kts 97°
2026-02-19 01:42 40.44765 51.61299 32805 ft 535 kts 109°
2026-02-19 01:42 40.42929 51.70766 32789 ft 535 kts 110°
2026-02-19 01:43 40.41110 51.80242 32798 ft 535 kts 109°
2026-02-19 01:43 40.39352 51.89659 32790 ft 535 kts 109°
2026-02-19 01:44 40.37593 51.99140 32800 ft 534 kts 109°
2026-02-19 01:44 40.35826 52.08599 32792 ft 533 kts 109°
2026-02-19 01:45 40.33160 52.22750 32803 ft 533 kts 109°
2026-02-19 01:45 40.31374 52.32170 32810 ft 532 kts 109°
2026-02-19 01:46 40.29583 52.41583 32810 ft 532 kts 109°
2026-02-19 01:47 40.26653 52.55552 32819 ft 525 kts 117°
2026-02-19 01:47 40.23533 52.64021 32822 ft 515 kts 127°
2026-02-19 01:48 40.19543 52.71739 32828 ft 510 kts 132°
2026-02-19 01:48 40.15464 52.79358 32826 ft 511 kts 131°
2026-02-19 01:49 40.09411 52.90855 32830 ft 512 kts 131°
2026-02-19 01:49 40.05697 52.98816 32823 ft 523 kts 116°
2026-02-19 01:50 40.04714 53.03438 32842 ft 533 kts 103°
2026-02-19 01:50 40.04464 53.08286 32812 ft 541 kts 89°
2026-02-19 01:50 40.05425 53.18051 32842 ft 544 kts 84°
2026-02-19 01:51 40.06469 53.27791 32843 ft 547 kts 84°
2026-02-19 01:51 40.07436 53.37670 32846 ft 549 kts 85°
2026-02-19 01:52 40.08344 53.47590 32845 ft 550 kts 85°
2026-02-19 01:52 40.09234 53.57500 32846 ft 549 kts 85°
2026-02-19 01:53 40.10559 53.72319 32852 ft 547 kts 85°
2026-02-19 01:54 40.11434 53.82181 32852 ft 546 kts 85°
2026-02-19 01:54 40.12298 53.92013 32857 ft 545 kts 85°
2026-02-19 01:55 40.13148 54.01799 32856 ft 545 kts 85°
2026-02-19 01:55 40.13995 54.11642 32858 ft 545 kts 85°
2026-02-19 01:56 40.14835 54.21500 32864 ft 545 kts 85°
2026-02-19 01:56 40.15667 54.31372 32871 ft 546 kts 85°
2026-02-19 01:57 40.16896 54.46136 32875 ft 548 kts 85°
2026-02-19 01:57 40.17710 54.56053 32880 ft 548 kts 85°
2026-02-19 01:58 40.18518 54.65987 32883 ft 549 kts 85°
2026-02-19 01:58 40.19317 54.75932 32884 ft 549 kts 85°
2026-02-19 01:59 40.20102 54.85802 32881 ft 548 kts 85°
2026-02-19 01:59 40.20882 54.95722 32888 ft 548 kts 85°
2026-02-19 02:00 40.21654 55.05646 32894 ft 547 kts 85°
2026-02-19 02:00 40.22416 55.15552 32892 ft 547 kts 86°
2026-02-19 02:01 40.23541 55.30385 32896 ft 546 kts 86°
2026-02-19 02:02 40.24275 55.40207 32908 ft 545 kts 86°
2026-02-19 02:02 40.25005 55.50083 32899 ft 544 kts 86°
2026-02-19 02:03 40.25724 55.59938 32916 ft 543 kts 86°
2026-02-19 02:03 40.26456 55.69788 32908 ft 543 kts 83°
2026-02-19 02:04 40.28014 55.79459 32925 ft 543 kts 72°
2026-02-19 02:04 40.30612 55.88729 32924 ft 542 kts 68°
2026-02-19 02:05 40.34614 56.02535 32936 ft 542 kts 69°
2026-02-19 02:05 40.37230 56.11815 32934 ft 543 kts 69°
2026-02-19 02:06 40.39825 56.21109 32932 ft 542 kts 69°
2026-02-19 02:06 40.41980 56.28847 32933 ft 542 kts 69°
2026-02-19 02:07 40.44565 56.38147 32938 ft 542 kts 69°
2026-02-19 02:07 40.47142 56.47443 32937 ft 541 kts 69°
2026-02-19 02:08 40.49707 56.56738 32939 ft 541 kts 69°
2026-02-19 02:08 40.52267 56.66043 32943 ft 540 kts 69°
2026-02-19 02:09 40.56070 56.79936 32946 ft 540 kts 69°
2026-02-19 02:10 40.58609 56.89255 32948 ft 540 kts 69°
2026-02-19 02:10 40.61137 56.98568 32958 ft 540 kts 69°
2026-02-19 02:11 40.63655 57.07875 32957 ft 540 kts 69°
2026-02-19 02:11 40.66141 57.17136 32961 ft 539 kts 70°
2026-02-19 02:12 40.68619 57.26463 32959 ft 539 kts 70°
2026-02-19 02:12 40.71092 57.35803 32962 ft 539 kts 70°
2026-02-19 02:13 40.74790 57.49819 32953 ft 539 kts 70°
2026-02-19 02:13 40.77244 57.59162 32963 ft 539 kts 70°
2026-02-19 02:14 40.79737 57.68481 32962 ft 538 kts 68°
2026-02-19 02:14 40.82387 57.77712 32964 ft 537 kts 68°
2026-02-19 02:15 40.85051 57.86918 32961 ft 537 kts 68°
2026-02-19 02:15 40.87683 57.96145 32965 ft 536 kts 68°
2026-02-19 02:16 40.90290 58.05386 32966 ft 536 kts 68°
2026-02-19 02:16 40.92865 58.14555 32967 ft 536 kts 68°
2026-02-19 02:17 40.96749 58.28438 32971 ft 536 kts 68°
2026-02-19 02:18 40.99326 58.37684 32966 ft 536 kts 68°
2026-02-19 02:18 41.01901 58.46959 32973 ft 536 kts 68°
2026-02-19 02:19 41.04472 58.56252 32969 ft 537 kts 68°
2026-02-19 02:19 41.07017 58.65489 32974 ft 537 kts 68°
2026-02-19 02:20 41.09588 58.74849 32972 ft 537 kts 68°
2026-02-19 02:20 41.12119 58.84103 32966 ft 537 kts 68°
2026-02-19 02:21 41.15920 58.98060 32970 ft 536 kts 68°
2026-02-19 02:21 41.18448 59.07389 32974 ft 536 kts 68°
2026-02-19 02:22 41.20965 59.16712 32978 ft 536 kts 69°
2026-02-19 02:22 41.23476 59.26043 32973 ft 536 kts 69°
2026-02-19 02:23 41.25977 59.35378 32976 ft 536 kts 69°
2026-02-19 02:23 41.28473 59.44728 32976 ft 537 kts 69°
2026-02-19 02:24 41.30965 59.54098 32975 ft 537 kts 69°
2026-02-19 02:25 41.34673 59.68118 32976 ft 537 kts 69°
2026-02-19 02:25 41.37018 59.77569 32978 ft 538 kts 70°
2026-02-19 02:26 41.39302 59.87064 32978 ft 538 kts 70°
2026-02-19 02:26 41.41599 59.96548 32981 ft 538 kts 70°
2026-02-19 02:27 41.43898 60.06019 32983 ft 537 kts 70°
2026-02-19 02:27 41.46178 60.15448 32984 ft 537 kts 70°
2026-02-19 02:28 41.48453 60.24951 32986 ft 537 kts 71°
2026-02-19 02:28 41.50683 60.34470 32990 ft 538 kts 71°
2026-02-19 02:29 41.54016 60.48767 32995 ft 538 kts 71°
2026-02-19 02:30 41.57345 60.63093 32994 ft 538 kts 71°
2026-02-19 02:30 41.59656 60.72597 32995 ft 537 kts 69°
2026-02-19 02:31 41.62182 60.82000 32992 ft 537 kts 68°
2026-02-19 02:31 41.64695 60.91355 32992 ft 537 kts 68°
2026-02-19 02:32 41.68403 61.05521 32992 ft 538 kts 69°
2026-02-19 02:33 41.72075 61.19715 32994 ft 538 kts 69°
2026-02-19 02:33 41.74515 61.29178 32994 ft 538 kts 69°
2026-02-19 02:34 41.76934 61.38590 32991 ft 538 kts 69°
2026-02-19 02:34 41.79364 61.48079 32993 ft 538 kts 69°
2026-02-19 02:35 41.81784 61.57574 32992 ft 538 kts 69°
2026-02-19 02:35 41.84195 61.67070 32991 ft 538 kts 69°
2026-02-19 02:36 41.86599 61.76575 32990 ft 538 kts 69°
2026-02-19 02:36 41.88984 61.86097 32993 ft 538 kts 69°
2026-02-19 02:37 41.92524 62.00330 32997 ft 538 kts 69°
2026-02-19 02:37 41.94888 62.09865 32996 ft 538 kts 69°
2026-02-19 02:38 41.97249 62.19416 32997 ft 538 kts 70°
2026-02-19 02:38 41.99599 62.28961 32997 ft 538 kts 70°
2026-02-19 02:39 42.01945 62.38526 32993 ft 538 kts 70°
2026-02-19 02:39 42.04279 62.48086 32997 ft 538 kts 70°
2026-02-19 02:40 42.06602 62.57640 32995 ft 538 kts 70°
2026-02-19 02:41 42.10075 62.71973 32998 ft 538 kts 70°
2026-02-19 02:41 42.12388 62.81547 32992 ft 538 kts 70°
2026-02-19 02:42 42.14688 62.91147 32997 ft 537 kts 70°
2026-02-19 02:42 42.16979 63.00745 32992 ft 537 kts 70°
2026-02-19 02:43 42.19275 63.10343 32997 ft 537 kts 70°
2026-02-19 02:43 42.21554 63.19876 32995 ft 537 kts 70°
2026-02-19 02:44 42.23838 63.29477 32999 ft 537 kts 70°
2026-02-19 02:44 42.26112 63.39087 33002 ft 537 kts 70°
2026-02-19 02:45 42.29508 63.53519 33006 ft 537 kts 70°
2026-02-19 02:45 42.31762 63.63146 32983 ft 537 kts 70°
2026-02-19 02:46 42.34009 63.72783 33001 ft 538 kts 70°
2026-02-19 02:46 42.36248 63.82431 32989 ft 538 kts 70°
2026-02-19 02:47 42.38468 63.92035 33001 ft 538 kts 71°
2026-02-19 02:47 42.40687 64.01687 33000 ft 538 kts 71°
2026-02-19 02:48 42.42851 64.11406 32983 ft 538 kts 71°
2026-02-19 02:49 42.46073 64.25974 32981 ft 538 kts 71°
2026-02-19 02:49 42.48262 64.35703 32993 ft 538 kts 71°
2026-02-19 02:50 42.50444 64.45391 32988 ft 538 kts 71°
2026-02-19 02:50 42.53685 64.59918 32983 ft 538 kts 71°
2026-02-19 02:51 42.55839 64.69643 32988 ft 538 kts 71°
2026-02-19 02:51 42.57988 64.79385 32984 ft 538 kts 71°
2026-02-19 02:52 42.59778 64.87535 32978 ft 538 kts 71°
2026-02-19 02:53 42.62961 65.02100 32976 ft 538 kts 71°
2026-02-19 02:53 42.65082 65.11864 32973 ft 538 kts 71°
2026-02-19 02:54 42.67192 65.21622 32972 ft 538 kts 71°
2026-02-19 02:54 42.69298 65.31402 32972 ft 539 kts 71°
2026-02-19 02:55 42.71395 65.41191 32969 ft 539 kts 72°
2026-02-19 02:55 42.73472 65.50928 32976 ft 540 kts 72°
2026-02-19 02:56 42.75557 65.60750 32969 ft 540 kts 72°
2026-02-19 02:56 42.77635 65.70582 32967 ft 540 kts 72°
2026-02-19 02:57 42.80750 65.85343 32965 ft 541 kts 72°
2026-02-19 02:57 42.82839 65.95204 32965 ft 541 kts 72°
2026-02-19 02:58 42.84915 66.05068 32971 ft 542 kts 72°
2026-02-19 02:58 42.86957 66.14878 32964 ft 542 kts 72°
2026-02-19 02:59 42.88973 66.24793 32966 ft 542 kts 72°
2026-02-19 02:59 42.90979 66.34727 32965 ft 543 kts 72°
2026-02-19 03:00 42.92982 66.44659 32957 ft 543 kts 72°
2026-02-19 03:01 42.95975 66.59574 32963 ft 544 kts 72°
2026-02-19 03:01 42.97960 66.69532 32963 ft 544 kts 72°
2026-02-19 03:02 42.99943 66.79520 32958 ft 544 kts 72°
2026-02-19 03:02 43.01924 66.89509 32959 ft 545 kts 72°
2026-02-19 03:03 43.03900 66.99505 32964 ft 545 kts 73°
2026-02-19 03:03 43.05855 67.09453 32960 ft 545 kts 73°
2026-02-19 03:04 43.07821 67.19511 32962 ft 546 kts 73°
2026-02-19 03:04 43.09772 67.29545 32960 ft 546 kts 73°
2026-02-19 03:05 43.12687 67.44621 32966 ft 546 kts 73°
2026-02-19 03:05 43.14601 67.54613 32969 ft 547 kts 73°
2026-02-19 03:06 43.16521 67.64707 32959 ft 547 kts 73°
2026-02-19 03:06 43.18433 67.74798 32964 ft 547 kts 73°
2026-02-19 03:07 43.20339 67.84894 32963 ft 547 kts 73°
2026-02-19 03:07 43.22244 67.94999 32965 ft 546 kts 73°
2026-02-19 03:08 43.24127 68.05031 32965 ft 546 kts 73°
2026-02-19 03:09 43.26948 68.20172 32976 ft 546 kts 73°
2026-02-19 03:09 43.28814 68.30257 32983 ft 545 kts 73°
2026-02-19 03:10 43.30527 68.40397 32993 ft 546 kts 78°
2026-02-19 03:10 43.31736 68.50696 32998 ft 545 kts 79°
2026-02-19 03:11 43.32944 68.60915 32996 ft 545 kts 80°
2026-02-19 03:11 43.33859 68.71269 32986 ft 545 kts 83°
2026-02-19 03:12 43.34647 68.81607 32991 ft 544 kts 82°
2026-02-19 03:12 43.35488 68.91936 32988 ft 543 kts 82°
2026-02-19 03:13 43.36781 69.07389 32980 ft 541 kts 82°
2026-02-19 03:13 43.37623 69.17659 32986 ft 540 kts 82°
2026-02-19 03:14 43.38491 69.27855 32983 ft 540 kts 81°
2026-02-19 03:15 43.39828 69.43252 32974 ft 540 kts 82°
2026-02-19 03:15 43.40699 69.53516 32965 ft 541 kts 82°
2026-02-19 03:16 43.41558 69.63804 32959 ft 542 kts 82°
2026-02-19 03:16 43.42407 69.74052 32946 ft 543 kts 82°
2026-02-19 03:17 43.43716 69.89537 32941 ft 543 kts 82°
2026-02-19 03:17 43.44597 69.99875 32922 ft 544 kts 82°
2026-02-19 03:18 43.45465 70.10233 32925 ft 545 kts 82°
2026-02-19 03:18 43.46321 70.20604 32932 ft 546 kts 83°
2026-02-19 03:19 43.47171 70.31016 32938 ft 548 kts 83°
2026-02-19 03:19 43.48014 70.41465 32933 ft 549 kts 83°
2026-02-19 03:20 43.48845 70.51869 32936 ft 550 kts 83°
2026-02-19 03:21 43.50081 70.67594 32941 ft 550 kts 83°
2026-02-19 03:21 43.50893 70.78078 32943 ft 550 kts 83°
2026-02-19 03:22 43.51696 70.88556 32942 ft 550 kts 83°
2026-02-19 03:22 43.52480 70.99042 32953 ft 549 kts 83°
2026-02-19 03:23 43.53251 71.09514 32949 ft 549 kts 83°
2026-02-19 03:23 43.54014 71.19992 32951 ft 549 kts 83°
2026-02-19 03:24 43.54767 71.30461 32959 ft 548 kts 83°
2026-02-19 03:24 43.55508 71.40875 32960 ft 548 kts 83°
2026-02-19 03:25 43.56605 71.56575 32957 ft 548 kts 83°
2026-02-19 03:25 43.57324 71.67037 32963 ft 548 kts 83°
2026-02-19 03:26 43.58034 71.77502 33058 ft 551 kts 83°
2026-02-19 03:26 43.58388 71.82780 33411 ft 550 kts 83°
2026-02-19 03:26 43.58737 71.88016 33833 ft 547 kts 83°
2026-02-19 03:27 43.59081 71.93229 34187 ft 545 kts 83°
2026-02-19 03:27 43.59423 71.98439 34468 ft 545 kts 83°
2026-02-19 03:27 43.59764 72.03652 34687 ft 545 kts 83°
2026-02-19 03:27 43.60102 72.08865 34869 ft 546 kts 83°
2026-02-19 03:28 43.60774 72.19338 34945 ft 548 kts 83°
2026-02-19 03:29 43.61755 72.34932 34944 ft 544 kts 83°
2026-02-19 03:29 43.62397 72.45332 34947 ft 543 kts 83°
2026-02-19 03:30 43.63031 72.55731 34956 ft 543 kts 83°
2026-02-19 03:30 43.63654 72.66126 34951 ft 543 kts 83°
2026-02-19 03:31 43.64268 72.76523 34952 ft 544 kts 84°
2026-02-19 03:31 43.64869 72.86860 34947 ft 544 kts 84°
2026-02-19 03:32 43.65466 72.97295 34946 ft 545 kts 84°
2026-02-19 03:32 43.66053 73.07717 34947 ft 545 kts 84°
2026-02-19 03:33 43.66917 73.23398 34943 ft 545 kts 84°
2026-02-19 03:33 43.67481 73.33833 34946 ft 544 kts 84°
2026-02-19 03:34 43.68034 73.44262 34947 ft 543 kts 84°
2026-02-19 03:34 43.68577 73.54671 34948 ft 542 kts 84°
2026-02-19 03:35 43.69110 73.65057 34946 ft 542 kts 84°
2026-02-19 03:35 43.69591 73.75378 34951 ft 541 kts 87°
2026-02-19 03:36 43.69384 73.85760 34947 ft 541 kts 92°
2026-02-19 03:37 43.68849 74.01345 34939 ft 541 kts 92°
2026-02-19 03:37 43.68545 74.11730 34941 ft 541 kts 91°
2026-02-19 03:38 43.68288 74.20359 34939 ft 541 kts 91°
2026-02-19 03:38 43.67971 74.30743 34945 ft 541 kts 91°
2026-02-19 03:39 43.67651 74.41131 34950 ft 541 kts 92°
2026-02-19 03:39 43.67322 74.51512 34948 ft 541 kts 92°
2026-02-19 03:40 43.66984 74.61889 34965 ft 540 kts 92°
2026-02-19 03:40 43.66634 74.72263 34968 ft 540 kts 92°
2026-02-19 03:41 43.66094 74.87813 34981 ft 540 kts 92°
2026-02-19 03:41 43.65725 74.98108 34991 ft 540 kts 92°
2026-02-19 03:42 43.65344 75.08479 35000 ft 540 kts 92°
2026-02-19 03:42 43.64953 75.18839 35006 ft 541 kts 92°
2026-02-19 03:43 43.64553 75.29209 35013 ft 540 kts 92°
2026-02-19 03:43 43.64144 75.39572 35020 ft 540 kts 92°
2026-02-19 03:44 43.63726 75.49941 35026 ft 540 kts 92°
2026-02-19 03:45 43.63073 75.65492 35033 ft 541 kts 93°
2026-02-19 03:45 43.62622 75.75850 35037 ft 541 kts 93°
2026-02-19 03:46 43.62167 75.86134 35041 ft 541 kts 93°
2026-02-19 03:46 43.61700 75.96503 35045 ft 541 kts 93°
2026-02-19 03:47 43.61223 76.06867 35048 ft 540 kts 93°
2026-02-19 03:47 43.60739 76.17207 35050 ft 540 kts 93°
2026-02-19 03:48 43.60246 76.27546 35053 ft 540 kts 93°
2026-02-19 03:48 43.59918 76.37901 35058 ft 539 kts 89°
2026-02-19 03:49 43.59923 76.53420 35060 ft 539 kts 89°
2026-02-19 03:49 43.59899 76.63679 35064 ft 538 kts 89°
2026-02-19 03:50 43.59842 76.74018 35059 ft 538 kts 89°
2026-02-19 03:50 43.59770 76.84346 35056 ft 538 kts 90°
2026-02-19 03:51 43.59623 76.94658 35055 ft 538 kts 90°
2026-02-19 03:51 43.59503 77.04994 35051 ft 538 kts 89°
2026-02-19 03:52 43.59409 77.15321 35048 ft 538 kts 90°
2026-02-19 03:53 43.58936 77.30777 35043 ft 537 kts 92°
2026-02-19 03:53 43.58543 77.41074 35030 ft 537 kts 92°
2026-02-19 03:54 43.58183 77.51378 35028 ft 537 kts 91°
2026-02-19 03:54 43.57992 77.61606 35025 ft 536 kts 89°
2026-02-19 03:55 43.57910 77.71894 35025 ft 536 kts 89°
2026-02-19 03:55 43.57789 77.82179 35028 ft 536 kts 90°
2026-02-19 03:56 43.57630 77.92471 35024 ft 536 kts 90°
2026-02-19 03:56 43.57464 78.02755 35030 ft 536 kts 90°
2026-02-19 03:57 43.57206 78.18178 35041 ft 536 kts 90°
2026-02-19 03:57 43.57028 78.28470 35046 ft 536 kts 90°
2026-02-19 03:58 43.56842 78.38691 35054 ft 536 kts 90°
2026-02-19 03:58 43.56644 78.48985 35067 ft 536 kts 90°
2026-02-19 03:59 43.56438 78.59258 35075 ft 536 kts 90°
2026-02-19 03:59 43.56222 78.69538 35092 ft 536 kts 90°
2026-02-19 04:00 43.55999 78.79750 35095 ft 536 kts 91°
2026-02-19 04:01 43.55645 78.95140 35110 ft 535 kts 91°
2026-02-19 04:01 43.55397 79.05409 35105 ft 535 kts 91°
2026-02-19 04:02 43.55142 79.15635 35121 ft 533 kts 91°
2026-02-19 04:02 43.54879 79.25851 35119 ft 533 kts 91°
2026-02-19 04:03 43.54603 79.36073 35123 ft 533 kts 91°
2026-02-19 04:03 43.54321 79.46233 35120 ft 534 kts 91°
2026-02-19 04:04 43.54028 79.56458 35123 ft 534 kts 91°
2026-02-19 04:04 43.53727 79.66681 35116 ft 534 kts 91°
2026-02-19 04:05 43.53261 79.82003 35114 ft 533 kts 91°
2026-02-19 04:05 43.52933 79.92179 35117 ft 532 kts 91°
2026-02-19 04:06 43.52594 80.02378 35108 ft 531 kts 91°
2026-02-19 04:06 43.52251 80.12458 35105 ft 530 kts 91°
2026-02-19 04:07 43.51719 80.27646 35092 ft 528 kts 91°
2026-02-19 04:08 43.51169 80.42780 35088 ft 526 kts 91°
2026-02-19 04:09 43.50601 80.57872 35084 ft 525 kts 92°
2026-02-19 04:09 43.50213 80.67900 35079 ft 524 kts 92°
2026-02-19 04:10 43.49856 80.77859 35079 ft 523 kts 90°
2026-02-19 04:10 43.49706 80.87877 35079 ft 522 kts 89°
2026-02-19 04:11 43.49602 80.97867 35066 ft 521 kts 89°
2026-02-19 04:11 43.49461 81.07849 35083 ft 521 kts 90°
2026-02-19 04:12 43.49287 81.17842 35084 ft 521 kts 90°
2026-02-19 04:12 43.49099 81.27815 35071 ft 520 kts 90°
2026-02-19 04:13 43.48805 81.42681 35074 ft 520 kts 90°
2026-02-19 04:13 43.48599 81.52632 35111 ft 519 kts 90°
2026-02-19 04:14 43.48386 81.62578 35107 ft 519 kts 90°
2026-02-19 04:14 43.48160 81.72509 35103 ft 518 kts 90°
2026-02-19 04:15 43.47934 81.82426 35107 ft 518 kts 90°
2026-02-19 04:15 43.47695 81.92353 35112 ft 518 kts 90°
2026-02-19 04:16 43.47448 82.02209 35117 ft 518 kts 90°
2026-02-19 04:17 43.47060 82.17060 35124 ft 517 kts 90°
2026-02-19 04:17 43.46792 82.26957 35126 ft 517 kts 90°
2026-02-19 04:18 43.46515 82.36852 35126 ft 517 kts 90°
2026-02-19 04:18 43.46229 82.46737 35121 ft 516 kts 90°
2026-02-19 04:19 43.45936 82.56607 35122 ft 516 kts 90°
2026-02-19 04:19 43.45636 82.66408 35115 ft 515 kts 90°
2026-02-19 04:20 43.45327 82.76259 35108 ft 514 kts 90°
2026-02-19 04:20 43.45008 82.86110 35101 ft 514 kts 90°
2026-02-19 04:21 43.44516 83.00858 35083 ft 514 kts 91°
2026-02-19 04:21 43.44178 83.10670 35078 ft 513 kts 91°
2026-02-19 04:22 43.43834 83.20417 35073 ft 513 kts 91°
2026-02-19 04:22 43.43480 83.30224 35072 ft 513 kts 91°
2026-02-19 04:23 43.43059 83.40020 35069 ft 513 kts 94°
2026-02-19 04:23 43.42261 83.49791 35079 ft 513 kts 95°
2026-02-19 04:24 43.41541 83.57897 35078 ft 513 kts 95°
2026-02-19 04:25 43.40267 83.72519 35091 ft 513 kts 95°
2026-02-19 04:25 43.39426 83.82292 35095 ft 513 kts 95°
2026-02-19 04:26 43.38585 83.91980 35111 ft 513 kts 95°
2026-02-19 04:26 43.37729 84.01716 35119 ft 513 kts 95°
2026-02-19 04:27 43.36862 84.11461 35132 ft 512 kts 95°
2026-02-19 04:27 43.35991 84.21181 35141 ft 512 kts 95°
2026-02-19 04:28 43.35112 84.30886 35143 ft 512 kts 95°
2026-02-19 04:28 43.34228 84.40523 35156 ft 511 kts 96°
2026-02-19 04:29 43.32841 84.55054 35147 ft 511 kts 96°
2026-02-19 04:29 43.31908 84.64718 35170 ft 510 kts 96°
2026-02-19 04:30 43.30970 84.74375 35153 ft 510 kts 96°
2026-02-19 04:30 43.30026 84.84027 35162 ft 509 kts 96°
2026-02-19 04:31 43.29074 84.93653 35162 ft 509 kts 96°
2026-02-19 04:31 43.28123 85.03217 35158 ft 507 kts 96°
2026-02-19 04:32 43.27164 85.12770 35157 ft 507 kts 96°
2026-02-19 04:33 43.25215 85.31908 35141 ft 506 kts 96°
2026-02-19 04:33 43.24231 85.41451 35123 ft 505 kts 96°
2026-02-19 04:34 43.23245 85.50944 35112 ft 503 kts 96°
2026-02-19 04:34 43.22248 85.60457 35098 ft 502 kts 96°
2026-02-19 04:35 43.21246 85.69939 35105 ft 502 kts 96°
2026-02-19 04:35 43.20237 85.79416 35099 ft 502 kts 96°
2026-02-19 04:36 43.19227 85.88836 35077 ft 502 kts 96°
2026-02-19 04:36 43.18997 85.93567 35064 ft 497 kts 83°
2026-02-19 04:37 43.20738 86.02545 35073 ft 484 kts 59°
2026-02-19 04:37 43.24423 86.10154 35063 ft 479 kts 50°
2026-02-19 04:38 43.28225 86.17739 35027 ft 484 kts 52°
2026-02-19 04:38 43.30093 86.21595 34867 ft 487 kts 52°
2026-02-19 04:38 43.31974 86.25485 34939 ft 491 kts 52°
2026-02-19 04:39 43.35769 86.33316 35002 ft 500 kts 52°
2026-02-19 04:39 43.39624 86.41292 34968 ft 501 kts 52°
2026-02-19 04:40 43.43480 86.49274 34952 ft 501 kts 52°
2026-02-19 04:40 43.47357 86.57248 34921 ft 501 kts 52°
2026-02-19 04:41 43.53138 86.69186 34922 ft 499 kts 52°
2026-02-19 04:41 43.56965 86.77162 34940 ft 498 kts 52°
2026-02-19 04:42 43.60750 86.85146 34955 ft 496 kts 52°
2026-02-19 04:42 43.64529 86.93134 34986 ft 497 kts 52°
2026-02-19 04:43 43.68314 87.01145 35006 ft 498 kts 52°
2026-02-19 04:43 43.72082 87.09141 35047 ft 500 kts 52°
2026-02-19 04:44 43.75873 87.17218 35093 ft 500 kts 53°
2026-02-19 04:45 43.81538 87.29392 35151 ft 502 kts 53°
2026-02-19 04:45 43.85294 87.37491 35161 ft 503 kts 53°
2026-02-19 04:46 43.89072 87.45653 35152 ft 503 kts 53°
2026-02-19 04:46 43.92964 87.53703 35154 ft 500 kts 49°
2026-02-19 04:47 43.97180 87.61366 35163 ft 499 kts 47°
2026-02-19 04:47 44.01418 87.69024 35156 ft 500 kts 48°
2026-02-19 04:48 44.05625 87.76730 35153 ft 500 kts 48°
2026-02-19 04:48 44.09795 87.84422 35152 ft 500 kts 48°
2026-02-19 04:49 44.15855 87.96282 35142 ft 507 kts 58°
2026-02-19 04:49 44.18492 88.05445 35145 ft 514 kts 73°
2026-02-19 04:50 44.19974 88.15217 35143 ft 516 kts 76°
2026-02-19 04:50 44.21343 88.25037 35135 ft 516 kts 76°
2026-02-19 04:51 44.22756 88.34855 35123 ft 516 kts 76°
2026-02-19 04:51 44.24199 88.44657 35146 ft 516 kts 76°
2026-02-19 04:52 44.25642 88.54461 35158 ft 516 kts 76°
2026-02-19 04:53 44.27787 88.69190 35172 ft 516 kts 76°
2026-02-19 04:53 44.29203 88.79010 35181 ft 516 kts 76°
2026-02-19 04:54 44.30610 88.88831 35190 ft 516 kts 76°
2026-02-19 04:54 44.32000 88.98595 35191 ft 516 kts 76°
2026-02-19 04:55 44.33392 89.08435 35192 ft 516 kts 76°
2026-02-19 04:55 44.34773 89.18257 35197 ft 515 kts 76°
2026-02-19 04:56 44.36149 89.28114 35198 ft 515 kts 76°
2026-02-19 04:56 44.37505 89.37891 35202 ft 515 kts 76°
2026-02-19 04:57 44.39536 89.52653 35204 ft 515 kts 76°
2026-02-19 04:57 44.40847 89.62489 35199 ft 516 kts 80°
2026-02-19 04:58 44.40837 89.72548 35208 ft 519 kts 96°
2026-02-19 04:58 44.39133 89.82354 35211 ft 520 kts 107°
2026-02-19 04:59 44.36935 89.91986 35203 ft 520 kts 107°
2026-02-19 04:59 44.34755 90.01642 35520 ft 519 kts 105°
2026-02-19 05:00 44.33699 90.06403 35351 ft 508 kts 105°
2026-02-19 05:00 44.32670 90.11071 35255 ft 497 kts 104°
2026-02-19 05:01 44.28619 90.29494 35182 ft 504 kts 105°
2026-02-19 05:01 44.26540 90.38853 35160 ft 504 kts 105°
2026-02-19 05:02 44.24456 90.48180 35130 ft 503 kts 105°
2026-02-19 05:02 44.22372 90.57474 35112 ft 502 kts 105°
2026-02-19 05:03 44.20283 90.66749 35077 ft 500 kts 105°
2026-02-19 05:03 44.18195 90.75982 35066 ft 499 kts 105°
2026-02-19 05:04 44.16115 90.85146 35048 ft 498 kts 105°
2026-02-19 05:05 44.12977 90.98901 35046 ft 496 kts 105°
2026-02-19 05:05 44.10872 91.08085 35051 ft 499 kts 105°
2026-02-19 05:06 44.08761 91.17307 35057 ft 501 kts 105°
2026-02-19 05:06 44.06642 91.26533 35049 ft 500 kts 105°
2026-02-19 05:07 44.03471 91.40266 35081 ft 499 kts 105°
2026-02-19 05:07 44.01327 91.49436 35085 ft 498 kts 105°
2026-02-19 05:08 43.99162 91.58560 35111 ft 497 kts 105°
2026-02-19 05:09 43.95908 91.72215 35112 ft 496 kts 105°
2026-02-19 05:09 43.93735 91.81316 35101 ft 496 kts 105°
2026-02-19 05:10 43.91572 91.90332 35118 ft 496 kts 105°
2026-02-19 05:10 43.89383 91.99425 35094 ft 496 kts 105°
2026-02-19 05:11 43.87185 92.08512 35115 ft 497 kts 105°
2026-02-19 05:11 43.85352 92.16062 35092 ft 498 kts 105°
2026-02-19 05:12 43.83139 92.25153 35102 ft 498 kts 105°
2026-02-19 05:12 43.80913 92.34249 35084 ft 499 kts 105°
2026-02-19 05:13 43.77560 92.47893 35074 ft 499 kts 105°
2026-02-19 05:13 43.75317 92.56973 35066 ft 499 kts 105°
2026-02-19 05:14 43.73068 92.66043 35077 ft 499 kts 105°
2026-02-19 05:14 43.70828 92.75043 35067 ft 499 kts 105°
2026-02-19 05:15 43.68564 92.84103 35061 ft 498 kts 105°
2026-02-19 05:15 43.66289 92.93178 35058 ft 498 kts 105°
2026-02-19 05:16 43.64027 93.02222 35066 ft 498 kts 105°
2026-02-19 05:17 43.60794 93.15773 35072 ft 498 kts 104°
2026-02-19 05:17 43.58633 93.24850 35081 ft 498 kts 104°
2026-02-19 05:18 43.56450 93.33925 35095 ft 498 kts 104°
2026-02-19 05:18 43.54254 93.42990 35093 ft 498 kts 104°
2026-02-19 05:19 43.52055 93.52028 35121 ft 497 kts 104°
2026-02-19 05:19 43.49849 93.61064 35120 ft 497 kts 104°
2026-02-19 05:20 43.47639 93.70085 35146 ft 497 kts 104°
2026-02-19 05:20 43.45420 93.79105 35142 ft 498 kts 105°
2026-02-19 05:21 43.43186 93.88160 34985 ft 502 kts 107°
2026-02-19 05:21 43.42057 93.92718 35059 ft 506 kts 107°
2026-02-19 05:21 43.39774 94.01909 35114 ft 515 kts 107°
2026-02-19 05:22 43.37444 94.11247 35093 ft 516 kts 107°
2026-02-19 05:22 43.35101 94.20592 35070 ft 517 kts 107°
2026-02-19 05:23 43.32756 94.29917 35053 ft 516 kts 107°
2026-02-19 05:23 43.30407 94.39225 35032 ft 515 kts 107°
2026-02-19 05:24 43.28054 94.48505 35022 ft 514 kts 107°
2026-02-19 05:25 43.24533 94.62332 35017 ft 513 kts 107°
2026-02-19 05:25 43.22426 94.70566 35031 ft 513 kts 107°
2026-02-19 05:26 43.20054 94.79803 35034 ft 513 kts 107°
2026-02-19 05:26 43.17674 94.89032 35041 ft 513 kts 107°
2026-02-19 05:27 43.15290 94.98249 35054 ft 513 kts 108°
2026-02-19 05:27 43.12273 95.06977 35064 ft 513 kts 126°
2026-02-19 05:28 43.07276 95.13880 35084 ft 510 kts 147°
2026-02-19 05:28 43.01362 95.19255 35099 ft 511 kts 148°
2026-02-19 05:29 42.92435 95.27346 35111 ft 514 kts 147°
2026-02-19 05:29 42.86499 95.32838 35127 ft 515 kts 147°
2026-02-19 05:30 42.80566 95.38336 35138 ft 516 kts 147°
2026-02-19 05:30 42.74613 95.43834 35146 ft 517 kts 147°
2026-02-19 05:31 42.68660 95.49312 35156 ft 517 kts 147°
2026-02-19 05:31 42.62726 95.54759 35168 ft 517 kts 147°
2026-02-19 05:32 42.56757 95.60226 35170 ft 518 kts 147°
2026-02-19 05:33 42.47799 95.68411 35172 ft 517 kts 147°
2026-02-19 05:33 42.42043 95.74197 35161 ft 514 kts 131°
2026-02-19 05:33 42.40008 95.78135 35172 ft 511 kts 114°
2026-02-19 05:34 42.38742 95.82589 35170 ft 505 kts 100°
2026-02-19 05:34 42.38292 95.87182 35164 ft 494 kts 87°
2026-02-19 05:34 42.38215 95.91836 35169 ft 498 kts 87°
2026-02-19 05:35 42.38081 96.01222 35152 ft 499 kts 87°
2026-02-19 05:35 42.37879 96.10604 35145 ft 498 kts 88°
2026-02-19 05:36 42.37618 96.19917 35128 ft 496 kts 88°
2026-02-19 05:36 42.37337 96.29246 35113 ft 494 kts 88°
2026-02-19 05:37 42.36907 96.43211 35102 ft 495 kts 88°
2026-02-19 05:37 42.36611 96.52561 35093 ft 497 kts 88°
2026-02-19 05:38 42.36310 96.61891 35077 ft 497 kts 88°
2026-02-19 05:39 42.35844 96.75860 35062 ft 497 kts 88°
2026-02-19 05:39 42.35521 96.85230 35055 ft 499 kts 88°
2026-02-19 05:40 42.35191 96.94556 35053 ft 498 kts 88°
2026-02-19 05:40 42.34854 97.03997 35052 ft 506 kts 88°
2026-02-19 05:41 42.34321 97.18356 35019 ft 509 kts 89°
2026-02-19 05:41 42.33953 97.27893 35034 ft 508 kts 89°
2026-02-19 05:42 42.33581 97.37423 35015 ft 507 kts 89°
2026-02-19 05:42 42.33206 97.46833 35008 ft 501 kts 89°
2026-02-19 05:43 42.32825 97.56202 35017 ft 497 kts 89°
2026-02-19 05:43 42.32440 97.65519 35056 ft 496 kts 89°
2026-02-19 05:44 42.32047 97.74823 35113 ft 496 kts 89°
2026-02-19 05:45 42.31443 97.88819 35128 ft 499 kts 89°
2026-02-19 05:45 42.31030 97.98140 35133 ft 500 kts 89°
2026-02-19 05:46 42.30606 98.07528 35127 ft 501 kts 89°
2026-02-19 05:46 42.30174 98.16946 35126 ft 501 kts 90°
2026-02-19 05:47 42.29735 98.26349 35131 ft 501 kts 90°
2026-02-19 05:47 42.29286 98.35682 35133 ft 501 kts 90°
2026-02-19 05:48 42.28805 98.45067 35139 ft 501 kts 90°
2026-02-19 05:48 42.28313 98.54441 35143 ft 500 kts 90°
2026-02-19 05:49 42.27566 98.68516 35135 ft 501 kts 90°
2026-02-19 05:49 42.27060 98.77903 35137 ft 501 kts 90°
2026-02-19 05:50 42.26545 98.87318 35145 ft 502 kts 90°
2026-02-19 05:50 42.26022 98.96727 35134 ft 503 kts 90°
2026-02-19 05:51 42.25493 99.06094 35142 ft 503 kts 90°
2026-02-19 05:51 42.24954 99.15509 35134 ft 503 kts 90°
2026-02-19 05:52 42.24407 99.24915 35137 ft 502 kts 90°
2026-02-19 05:53 42.23574 99.39002 35139 ft 501 kts 91°
2026-02-19 05:53 42.23011 99.48380 35139 ft 501 kts 91°
2026-02-19 05:54 42.22439 99.57751 35147 ft 500 kts 91°
2026-02-19 05:54 42.21862 99.67095 35151 ft 499 kts 91°
2026-02-19 05:55 42.21281 99.76376 35141 ft 499 kts 91°
2026-02-19 05:55 42.20690 99.85704 35149 ft 499 kts 91°
2026-02-19 05:56 42.20090 99.95030 35144 ft 499 kts 91°
2026-02-19 05:56 42.19483 100.04361 35155 ft 499 kts 91°
2026-02-19 05:57 42.18557 100.18369 35154 ft 500 kts 91°
2026-02-19 05:57 42.17931 100.27697 35155 ft 500 kts 91°
2026-02-19 05:58 42.17297 100.37027 35159 ft 500 kts 91°
2026-02-19 05:58 42.16656 100.46356 35157 ft 500 kts 91°
2026-02-19 05:59 42.16009 100.55651 35158 ft 500 kts 91°
2026-02-19 05:59 42.15351 100.64987 35165 ft 500 kts 91°
2026-02-19 06:00 42.14799 100.72741 35167 ft 500 kts 91°
2026-02-19 06:01 42.13790 100.86737 35167 ft 500 kts 91°
2026-02-19 06:01 42.13110 100.96061 35169 ft 500 kts 91°
2026-02-19 06:02 42.12117 101.05367 35169 ft 504 kts 99°
2026-02-19 06:02 42.09980 101.14405 35179 ft 507 kts 107°
2026-02-19 06:03 42.07583 101.23285 35173 ft 507 kts 107°
2026-02-19 06:03 42.05194 101.32213 35170 ft 507 kts 106°
2026-02-19 06:04 42.02828 101.41164 35169 ft 506 kts 106°
2026-02-19 06:04 42.00472 101.50092 35168 ft 506 kts 106°
2026-02-19 06:05 41.96931 101.63441 35174 ft 505 kts 106°
2026-02-19 06:05 41.94562 101.72322 35168 ft 505 kts 106°
2026-02-19 06:06 41.92200 101.81143 35164 ft 504 kts 106°
2026-02-19 06:06 41.89822 101.89994 35161 ft 504 kts 106°
2026-02-19 06:07 41.87440 101.98829 35165 ft 503 kts 106°
2026-02-19 06:07 41.85048 102.07665 35163 ft 503 kts 106°
2026-02-19 06:08 41.82654 102.16481 35156 ft 503 kts 106°
2026-02-19 06:09 41.79051 102.29688 35172 ft 503 kts 106°
2026-02-19 06:09 41.76643 102.38478 35162 ft 503 kts 107°
2026-02-19 06:10 41.74226 102.47268 35161 ft 503 kts 107°
2026-02-19 06:10 41.71800 102.56063 35168 ft 503 kts 107°
2026-02-19 06:11 41.69371 102.64839 35163 ft 503 kts 107°
2026-02-19 06:11 41.66933 102.73615 35166 ft 503 kts 107°
2026-02-19 06:12 41.64502 102.82319 35162 ft 503 kts 107°
2026-02-19 06:12 41.62047 102.91093 35156 ft 503 kts 107°
2026-02-19 06:13 41.58348 103.04243 35158 ft 503 kts 107°
2026-02-19 06:13 41.55867 103.12991 35151 ft 504 kts 107°
2026-02-19 06:14 41.53380 103.21730 35152 ft 504 kts 107°
2026-02-19 06:14 41.50903 103.30411 35152 ft 504 kts 107°
2026-02-19 06:15 41.48404 103.39143 35154 ft 504 kts 107°
2026-02-19 06:15 41.45899 103.47870 35145 ft 504 kts 107°
2026-02-19 06:16 41.43382 103.56605 35142 ft 504 kts 107°
2026-02-19 06:17 41.39592 103.69702 35141 ft 505 kts 107°
2026-02-19 06:17 41.37056 103.78427 35140 ft 505 kts 107°
2026-02-19 06:18 41.34513 103.87150 35134 ft 505 kts 107°
2026-02-19 06:18 41.31963 103.95864 35135 ft 506 kts 107°
2026-02-19 06:19 41.29420 104.04531 35131 ft 506 kts 107°
2026-02-19 06:19 41.26854 104.13240 35136 ft 506 kts 108°
2026-02-19 06:20 41.24277 104.21962 35129 ft 506 kts 108°
2026-02-19 06:20 41.21699 104.30655 35130 ft 506 kts 108°
2026-02-19 06:21 41.17820 104.43687 35130 ft 505 kts 108°
2026-02-19 06:21 41.15246 104.52299 35129 ft 505 kts 108°
2026-02-19 06:22 41.12648 104.60962 35127 ft 505 kts 108°
2026-02-19 06:22 41.10044 104.69622 35126 ft 505 kts 108°
2026-02-19 06:23 41.07288 104.78184 35128 ft 506 kts 110°
2026-02-19 06:23 41.04367 104.86673 35129 ft 506 kts 111°
2026-02-19 06:24 41.01448 104.95152 35131 ft 506 kts 111°
2026-02-19 06:25 40.97113 105.07879 35131 ft 505 kts 110°
2026-02-19 06:25 40.94245 105.16303 35130 ft 505 kts 110°
2026-02-19 06:26 40.91349 105.24776 35126 ft 505 kts 110°
2026-02-19 06:26 40.88450 105.33229 35125 ft 505 kts 110°
2026-02-19 06:27 40.85548 105.41662 35131 ft 504 kts 111°
2026-02-19 06:27 40.82636 105.50102 35127 ft 504 kts 111°
2026-02-19 06:28 40.79742 105.58463 35131 ft 503 kts 111°
2026-02-19 06:28 40.76831 105.66850 35134 ft 502 kts 111°
2026-02-19 06:29 40.72450 105.79423 35129 ft 501 kts 111°
2026-02-19 06:29 40.69534 105.87763 35132 ft 501 kts 111°
2026-02-19 06:30 40.66633 105.96035 35153 ft 500 kts 111°
2026-02-19 06:30 40.63707 106.04354 35139 ft 500 kts 111°
2026-02-19 06:31 40.60781 106.12650 35136 ft 500 kts 111°
2026-02-19 06:31 40.57843 106.20953 35130 ft 499 kts 111°
2026-02-19 06:32 40.54922 106.29186 35133 ft 500 kts 111°
2026-02-19 06:33 40.50493 106.41625 35134 ft 501 kts 111°
2026-02-19 06:33 40.47527 106.49926 35134 ft 501 kts 111°
2026-02-19 06:34 40.44556 106.58214 35136 ft 502 kts 111°
2026-02-19 06:34 40.41571 106.66521 35138 ft 502 kts 111°
2026-02-19 06:35 40.38585 106.74805 35140 ft 503 kts 111°
2026-02-19 06:35 40.35608 106.83045 35142 ft 503 kts 111°
2026-02-19 06:36 40.32676 106.91371 35143 ft 499 kts 105°
2026-02-19 06:36 40.31795 106.95729 35143 ft 491 kts 94°
2026-02-19 06:36 40.31477 107.00158 35154 ft 485 kts 85°
2026-02-19 06:37 40.32226 107.08794 35153 ft 475 kts 74°
2026-02-19 06:37 40.32808 107.13063 35148 ft 476 kts 74°
2026-02-19 06:37 40.33953 107.21628 35140 ft 478 kts 75°
2026-02-19 06:38 40.35046 107.30249 35142 ft 480 kts 75°
2026-02-19 06:38 40.36107 107.38878 35133 ft 480 kts 75°
2026-02-19 06:39 40.37155 107.47470 35126 ft 479 kts 75°
2026-02-19 06:39 40.38203 107.56098 35125 ft 479 kts 75°
2026-02-19 06:40 40.39247 107.64735 35131 ft 478 kts 75°
2026-02-19 06:41 40.40796 107.77650 35128 ft 477 kts 75°
2026-02-19 06:41 40.41822 107.86272 35121 ft 477 kts 75°
2026-02-19 06:42 40.42833 107.94821 35126 ft 477 kts 75°
2026-02-19 06:42 40.43839 108.03433 35120 ft 477 kts 76°
2026-02-19 06:43 40.44831 108.12044 35122 ft 477 kts 76°
2026-02-19 06:43 40.45817 108.20664 35117 ft 477 kts 76°
2026-02-19 06:44 40.46796 108.29271 35125 ft 477 kts 76°
2026-02-19 06:44 40.47772 108.37900 35110 ft 477 kts 76°
2026-02-19 06:45 40.49221 108.50829 35116 ft 477 kts 76°
2026-02-19 06:45 40.50020 108.58014 35112 ft 478 kts 76°
2026-02-19 06:46 40.51129 108.68058 35110 ft 478 kts 76°
2026-02-19 06:46 40.51917 108.75250 35112 ft 478 kts 76°
2026-02-19 06:47 40.52859 108.83899 35103 ft 478 kts 76°
2026-02-19 06:47 40.53795 108.92550 35106 ft 478 kts 76°
2026-02-19 06:48 40.54724 109.01202 35108 ft 478 kts 76°
2026-02-19 06:49 40.56100 109.14141 35109 ft 477 kts 77°
2026-02-19 06:49 40.57018 109.22842 35106 ft 477 kts 77°
2026-02-19 06:50 40.57918 109.31441 35107 ft 477 kts 77°
2026-02-19 06:50 40.58818 109.40102 35102 ft 477 kts 77°
2026-02-19 06:51 40.59711 109.48764 35107 ft 478 kts 77°
2026-02-19 06:51 40.60598 109.57436 35109 ft 478 kts 77°
2026-02-19 06:52 40.61479 109.66104 35111 ft 478 kts 77°
2026-02-19 06:52 40.62354 109.74790 35115 ft 479 kts 77°
2026-02-19 06:53 40.63655 109.87813 35125 ft 479 kts 77°
2026-02-19 06:53 40.64508 109.96465 35128 ft 479 kts 78°
2026-02-19 06:54 40.64764 110.05299 35141 ft 484 kts 86°
2026-02-19 06:54 40.64653 110.14186 35144 ft 485 kts 86°
2026-02-19 06:55 40.64565 110.23077 35143 ft 485 kts 86°
2026-02-19 06:55 40.64505 110.31897 35135 ft 486 kts 85°
2026-02-19 06:56 40.64444 110.40803 35150 ft 486 kts 86°
2026-02-19 06:57 40.64334 110.54159 35145 ft 487 kts 86°
2026-02-19 06:57 40.64249 110.63080 35140 ft 486 kts 86°
2026-02-19 06:58 40.64162 110.71982 35151 ft 486 kts 86°
2026-02-19 06:58 40.64069 110.80905 35143 ft 487 kts 86°
2026-02-19 06:59 40.63969 110.89799 35137 ft 488 kts 86°
2026-02-19 06:59 40.63860 110.98746 35144 ft 489 kts 87°
2026-02-19 07:00 40.63745 111.07706 35144 ft 490 kts 87°
2026-02-19 07:00 40.63623 111.16695 35144 ft 491 kts 87°
2026-02-19 07:01 40.63427 111.30193 35147 ft 491 kts 87°
2026-02-19 07:01 40.63289 111.39179 35145 ft 491 kts 88°
2026-02-19 07:02 40.63144 111.48177 35148 ft 491 kts 88°
2026-02-19 07:02 40.62993 111.57111 35153 ft 491 kts 88°
2026-02-19 07:03 40.62835 111.66106 35152 ft 491 kts 88°
2026-02-19 07:03 40.62669 111.75109 35157 ft 492 kts 88°
2026-02-19 07:04 40.62497 111.84125 35159 ft 492 kts 89°
2026-02-19 07:05 40.62313 111.97656 35156 ft 494 kts 89°
2026-02-19 07:05 40.62041 112.06657 35161 ft 495 kts 90°
2026-02-19 07:06 40.61816 112.15722 35151 ft 496 kts 89°
2026-02-19 07:06 40.61618 112.24815 35155 ft 498 kts 89°
2026-02-19 07:07 40.61399 112.33941 35143 ft 499 kts 90°
2026-02-19 07:07 40.61171 112.43100 35151 ft 501 kts 90°
2026-02-19 07:08 40.60941 112.52271 35140 ft 502 kts 91°
2026-02-19 07:08 40.60126 112.65972 35136 ft 504 kts 93°
2026-02-19 07:09 40.59566 112.75160 35128 ft 505 kts 94°
2026-02-19 07:09 40.58803 112.84379 35131 ft 506 kts 94°
2026-02-19 07:10 40.58165 112.93605 35123 ft 507 kts 93°
2026-02-19 07:10 40.57582 113.02852 35121 ft 507 kts 93°
2026-02-19 07:11 40.56975 113.12080 35115 ft 506 kts 93°
2026-02-19 07:11 40.56346 113.21282 35118 ft 504 kts 94°
2026-02-19 07:12 40.55706 113.30464 35111 ft 503 kts 94°
2026-02-19 07:13 40.54743 113.44122 35112 ft 501 kts 94°
2026-02-19 07:13 40.54092 113.53236 35111 ft 501 kts 94°
2026-02-19 07:14 40.53433 113.62371 35106 ft 500 kts 94°
2026-02-19 07:14 40.52772 113.71419 35112 ft 500 kts 94°
2026-02-19 07:15 40.52099 113.80532 35097 ft 501 kts 94°
2026-02-19 07:15 40.51419 113.89652 35101 ft 501 kts 94°
2026-02-19 07:16 40.50733 113.98760 35097 ft 502 kts 94°
2026-02-19 07:16 40.50052 114.12475 35091 ft 501 kts 91°
2026-02-19 07:17 40.49725 114.21614 35098 ft 501 kts 91°
2026-02-19 07:17 40.49353 114.30752 35090 ft 501 kts 92°
2026-02-19 07:18 40.48946 114.39908 35094 ft 501 kts 92°
2026-02-19 07:18 40.48528 114.49054 35084 ft 501 kts 92°
2026-02-19 07:19 40.48107 114.58134 35089 ft 501 kts 92°
2026-02-19 07:19 40.47678 114.67284 35090 ft 502 kts 92°
2026-02-19 07:20 40.47242 114.76432 35092 ft 502 kts 92°
2026-02-19 07:21 40.46573 114.90161 35091 ft 502 kts 92°
2026-02-19 07:21 40.46118 114.99317 35086 ft 502 kts 92°
2026-02-19 07:22 40.45656 115.08470 35093 ft 502 kts 92°
2026-02-19 07:22 40.45186 115.17641 35075 ft 503 kts 92°
2026-02-19 07:23 40.44709 115.26788 35092 ft 503 kts 92°
2026-02-19 07:23 40.44228 115.35902 35085 ft 503 kts 92°
2026-02-19 07:24 40.43736 115.45077 35091 ft 503 kts 92°
2026-02-19 07:24 40.42915 115.58842 35083 ft 504 kts 94°
2026-02-19 07:25 40.42159 115.67954 35078 ft 505 kts 95°
2026-02-19 07:25 40.41376 115.77114 35080 ft 504 kts 95°
2026-02-19 07:26 40.40616 115.86262 35081 ft 504 kts 95°
2026-02-19 07:26 40.39864 115.95384 35081 ft 503 kts 95°
2026-02-19 07:27 40.39105 116.04516 35083 ft 502 kts 95°
2026-02-19 07:27 40.38344 116.13564 35079 ft 501 kts 95°
2026-02-19 07:28 40.37572 116.22639 35086 ft 500 kts 95°
2026-02-19 07:29 40.36404 116.36238 35088 ft 499 kts 95°
2026-02-19 07:29 40.35618 116.45268 35090 ft 499 kts 95°
2026-02-19 07:30 40.34825 116.54305 35089 ft 498 kts 95°
2026-02-19 07:30 40.34004 116.63315 35087 ft 496 kts 99°
2026-02-19 07:30 40.32985 116.67573 35087 ft 497 kts 117°
2026-02-19 07:31 40.31046 116.71305 35096 ft 496 kts 135°
2026-02-19 07:31 40.28408 116.74183 35113 ft 494 kts 149°
2026-02-19 07:31 40.25367 116.76241 35092 ft 491 kts 163°
2026-02-19 07:31 40.22069 116.77280 35094 ft 484 kts 175°
2026-02-19 07:32 40.18725 116.77879 35102 ft 486 kts 176°
2026-02-19 07:32 40.08598 116.79677 35101 ft 492 kts 175°
2026-02-19 07:33 40.01811 116.81017 35098 ft 494 kts 174°
2026-02-19 07:33 39.95015 116.82386 35102 ft 494 kts 174°
2026-02-19 07:34 39.88256 116.83738 35107 ft 493 kts 174°
2026-02-19 07:34 39.82611 116.84861 35112 ft 492 kts 174°
2026-02-19 07:35 39.75838 116.86224 35119 ft 492 kts 174°
2026-02-19 07:35 39.69074 116.87634 35121 ft 491 kts 174°
2026-02-19 07:36 39.62328 116.89041 35128 ft 492 kts 174°
2026-02-19 07:37 39.52175 116.91141 35130 ft 493 kts 174°
2026-02-19 07:37 39.45408 116.92720 35343 ft 500 kts 163°
2026-02-19 07:37 39.42317 116.94751 35589 ft 506 kts 144°
2026-02-19 07:38 39.39776 116.97891 35925 ft 507 kts 129°
2026-02-19 07:38 39.37834 117.01690 36228 ft 507 kts 115°
2026-02-19 07:38 39.36507 117.05843 36413 ft 507 kts 110°
2026-02-19 07:38 39.35272 117.10138 36604 ft 509 kts 109°
2026-02-19 07:39 39.34060 117.14432 36875 ft 509 kts 110°
2026-02-19 07:39 39.32834 117.18724 37071 ft 510 kts 110°
2026-02-19 07:39 39.31579 117.23031 37108 ft 512 kts 110°
2026-02-19 07:40 39.29016 117.31597 37119 ft 510 kts 111°
2026-02-19 07:40 39.25159 117.44281 37124 ft 506 kts 111°
2026-02-19 07:41 39.22584 117.52731 37126 ft 505 kts 111°
2026-02-19 07:41 39.20007 117.61172 37131 ft 506 kts 111°
2026-02-19 07:42 39.17422 117.69618 37137 ft 507 kts 111°
2026-02-19 07:42 39.14821 117.78086 37141 ft 509 kts 111°
2026-02-19 07:43 39.12204 117.86581 37126 ft 511 kts 111°
2026-02-19 07:43 39.09577 117.95085 37135 ft 512 kts 111°
2026-02-19 07:44 39.06152 118.08028 37134 ft 512 kts 101°
2026-02-19 07:45 39.04783 118.17017 37128 ft 512 kts 100°
2026-02-19 07:45 39.03413 118.26016 37145 ft 512 kts 100°
2026-02-19 07:46 39.01986 118.34990 37141 ft 512 kts 101°
2026-02-19 07:46 39.00542 118.43952 37136 ft 511 kts 101°
2026-02-19 07:47 38.99099 118.52899 37142 ft 511 kts 101°
2026-02-19 07:47 38.96938 118.66259 37145 ft 510 kts 101°
2026-02-19 07:48 38.94758 118.79647 37143 ft 509 kts 101°
2026-02-19 07:49 38.93299 118.88553 37138 ft 509 kts 101°
2026-02-19 07:49 38.91833 118.97462 37140 ft 509 kts 101°
2026-02-19 07:50 38.90357 119.06365 37146 ft 509 kts 101°
2026-02-19 07:50 38.88876 119.15197 37145 ft 510 kts 101°
2026-02-19 07:51 38.87367 119.24151 37144 ft 510 kts 101°
2026-02-19 07:51 38.85871 119.32995 37143 ft 510 kts 101°
2026-02-19 07:52 38.84360 119.41892 37144 ft 511 kts 101°
2026-02-19 07:52 38.82077 119.55246 37156 ft 511 kts 101°
2026-02-19 07:53 38.80547 119.64150 37157 ft 511 kts 102°
2026-02-19 07:53 38.79010 119.73048 37157 ft 511 kts 102°
2026-02-19 07:54 38.77476 119.81890 37154 ft 511 kts 102°
2026-02-19 07:54 38.76012 119.90801 37155 ft 511 kts 101°
2026-02-19 07:55 38.73807 120.04170 37151 ft 511 kts 102°
2026-02-19 07:56 38.72129 120.12991 37143 ft 508 kts 112°
2026-02-19 07:56 38.67927 120.20021 37170 ft 502 kts 145°
2026-02-19 07:56 38.64978 120.22362 37160 ft 498 kts 159°
2026-02-19 07:57 38.58529 120.25241 37145 ft 496 kts 151°
2026-02-19 07:57 38.55831 120.28037 37170 ft 505 kts 131°
2026-02-19 07:57 38.53947 120.31841 37167 ft 511 kts 111°
2026-02-19 07:58 38.53093 120.36232 37176 ft 512 kts 92°
2026-02-19 07:58 38.53359 120.40729 37162 ft 508 kts 72°
2026-02-19 07:58 38.55937 120.49027 37156 ft 508 kts 69°
2026-02-19 07:59 38.56548 120.53494 37168 ft 514 kts 89°
2026-02-19 07:59 38.56215 120.58051 37181 ft 517 kts 99°
2026-02-19 07:59 38.54525 120.67002 37171 ft 518 kts 104°
2026-02-19 08:00 38.51963 120.80389 37161 ft 516 kts 101°
2026-02-19 08:01 38.50506 120.89281 37160 ft 513 kts 101°
2026-02-19 08:01 38.49060 120.98193 37164 ft 511 kts 101°
2026-02-19 08:02 38.47591 121.07065 37170 ft 509 kts 101°
2026-02-19 08:02 38.46119 121.15899 37170 ft 508 kts 101°
2026-02-19 08:03 38.44763 121.24765 37169 ft 508 kts 100°
2026-02-19 08:03 38.43344 121.33610 37171 ft 509 kts 102°
2026-02-19 08:04 38.41876 121.42400 37173 ft 510 kts 101°
2026-02-19 08:04 38.39673 121.55689 37168 ft 512 kts 102°
2026-02-19 08:05 38.38189 121.64582 37179 ft 513 kts 102°
2026-02-19 08:05 38.36693 121.73498 37185 ft 514 kts 102°
2026-02-19 08:06 38.35202 121.82353 37176 ft 514 kts 102°
2026-02-19 08:06 38.33692 121.91271 37179 ft 515 kts 102°
2026-02-19 08:07 38.32175 122.00187 37188 ft 515 kts 102°
2026-02-19 08:07 38.30652 122.09096 37187 ft 515 kts 102°
2026-02-19 08:08 38.28353 122.22475 37193 ft 515 kts 102°
2026-02-19 08:09 38.26938 122.31426 37198 ft 515 kts 99°
2026-02-19 08:09 38.25600 122.40315 37190 ft 514 kts 108°
2026-02-19 08:09 38.24283 122.44517 37200 ft 511 kts 119°
2026-02-19 08:10 38.22451 122.48389 37206 ft 509 kts 128°
2026-02-19 08:10 38.17679 122.54947 37204 ft 505 kts 139°
2026-02-19 08:11 38.12645 122.61211 37201 ft 507 kts 138°
2026-02-19 08:11 38.07681 122.67623 37209 ft 509 kts 137°
2026-02-19 08:12 38.02762 122.74027 37208 ft 510 kts 137°
2026-02-19 08:12 37.95317 122.83694 37220 ft 511 kts 138°
2026-02-19 08:13 37.90332 122.90141 37218 ft 512 kts 138°
2026-02-19 08:13 37.85338 122.96586 37228 ft 512 kts 138°
2026-02-19 08:14 37.80342 123.03020 37224 ft 512 kts 138°
2026-02-19 08:14 37.75372 123.09409 37239 ft 512 kts 138°
2026-02-19 08:15 37.70364 123.15833 37230 ft 512 kts 139°
2026-02-19 08:15 37.65361 123.22239 37228 ft 512 kts 139°
2026-02-19 08:16 37.57841 123.31853 37239 ft 513 kts 138°
2026-02-19 08:17 37.53279 123.38824 37266 ft 517 kts 130°
2026-02-19 08:17 37.49033 123.46078 37257 ft 518 kts 130°
2026-02-19 08:18 37.44739 123.53371 37256 ft 518 kts 130°
2026-02-19 08:18 37.40410 123.60626 37259 ft 519 kts 131°
2026-02-19 08:19 37.36060 123.67877 37262 ft 519 kts 131°
2026-02-19 08:19 37.31702 123.75130 37266 ft 520 kts 131°
2026-02-19 08:20 37.27358 123.82350 37271 ft 520 kts 131°
2026-02-19 08:20 37.20792 123.93236 37275 ft 521 kts 131°
2026-02-19 08:21 37.18833 123.97065 37266 ft 526 kts 119°
2026-02-19 08:21 37.17519 124.01370 37281 ft 531 kts 107°
2026-02-19 08:21 37.16836 124.05917 37284 ft 534 kts 95°
2026-02-19 08:21 37.16860 124.10572 37292 ft 534 kts 85°
2026-02-19 08:22 37.17351 124.18299 37288 ft 536 kts 86°
2026-02-19 08:22 37.17724 124.27644 37288 ft 538 kts 88°
2026-02-19 08:23 37.17901 124.37049 37288 ft 539 kts 89°
2026-02-19 08:23 37.18106 124.46391 37292 ft 540 kts 88°
2026-02-19 08:24 37.18428 124.60532 37297 ft 541 kts 88°
2026-02-19 08:25 37.18630 124.69943 37297 ft 540 kts 89°
2026-02-19 08:25 37.18824 124.79365 37303 ft 540 kts 89°
2026-02-19 08:26 37.19013 124.88775 37305 ft 540 kts 89°
2026-02-19 08:26 37.19204 124.98190 37304 ft 540 kts 89°
2026-02-19 08:27 37.19387 125.07544 37309 ft 539 kts 89°
2026-02-19 08:27 37.19563 125.16956 37313 ft 540 kts 89°
2026-02-19 08:28 37.19731 125.26377 37314 ft 540 kts 89°
2026-02-19 08:28 37.19969 125.40458 37316 ft 540 kts 89°
2026-02-19 08:29 37.20119 125.49885 37324 ft 541 kts 89°
2026-02-19 08:29 37.20248 125.59321 37323 ft 541 kts 89°
2026-02-19 08:30 37.20366 125.68784 37325 ft 542 kts 89°
2026-02-19 08:30 37.20480 125.78246 37328 ft 542 kts 89°
2026-02-19 08:31 37.20588 125.87699 37333 ft 542 kts 89°
2026-02-19 08:31 37.20688 125.97114 37334 ft 543 kts 89°
2026-02-19 08:32 37.20827 126.11318 37343 ft 543 kts 89°
2026-02-19 08:33 37.20910 126.20811 37351 ft 544 kts 90°
2026-02-19 08:33 37.20985 126.30290 37352 ft 544 kts 90°
2026-02-19 08:34 37.21054 126.39787 37348 ft 544 kts 90°
2026-02-19 08:34 37.21115 126.49282 37349 ft 544 kts 90°
2026-02-19 08:35 37.21175 126.58765 37350 ft 544 kts 90°
2026-02-19 08:35 37.21228 126.68208 37338 ft 544 kts 90°
2026-02-19 08:36 37.21212 126.77704 37332 ft 544 kts 94°
2026-02-19 08:36 37.20128 126.87065 37331 ft 541 kts 107°
2026-02-19 08:36 37.19191 126.91630 37340 ft 541 kts 107°
2026-02-19 08:37 37.17267 127.00770 37250 ft 542 kts 107°
2026-02-19 08:37 37.15376 127.09893 37230 ft 539 kts 107°
2026-02-19 08:38 37.13521 127.19001 37227 ft 539 kts 107°
2026-02-19 08:38 37.11681 127.28064 37220 ft 540 kts 107°
2026-02-19 08:39 37.09821 127.37173 37206 ft 540 kts 107°
2026-02-19 08:39 37.07949 127.46291 37195 ft 541 kts 107°
2026-02-19 08:40 37.05119 127.59993 37203 ft 542 kts 107°
2026-02-19 08:41 37.03218 127.69146 37202 ft 543 kts 107°
2026-02-19 08:41 37.01318 127.78256 37202 ft 544 kts 107°
2026-02-19 08:42 36.99399 127.87424 37199 ft 545 kts 107°
2026-02-19 08:42 36.97471 127.96595 37206 ft 545 kts 107°
2026-02-19 08:43 36.95532 128.05776 37193 ft 546 kts 107°
2026-02-19 08:43 36.93589 128.14945 37208 ft 546 kts 107°
2026-02-19 08:44 36.91639 128.24112 37199 ft 546 kts 107°
2026-02-19 08:44 36.88704 128.37820 37209 ft 546 kts 108°
2026-02-19 08:45 36.86735 128.46986 37189 ft 546 kts 108°
2026-02-19 08:45 36.84756 128.56148 37192 ft 546 kts 108°
2026-02-19 08:46 36.82781 128.65254 37189 ft 546 kts 108°
2026-02-19 08:46 36.80786 128.74419 37195 ft 547 kts 108°
2026-02-19 08:47 36.78783 128.83580 37221 ft 547 kts 108°
2026-02-19 08:47 36.76775 128.92735 37284 ft 547 kts 108°
2026-02-19 08:48 36.73675 129.06433 37171 ft 550 kts 109°
2026-02-19 08:49 36.71518 129.15589 37185 ft 551 kts 109°
2026-02-19 08:49 36.69424 129.24797 37181 ft 551 kts 108°
2026-02-19 08:50 36.67375 129.34000 37154 ft 551 kts 108°
2026-02-19 08:50 36.65323 129.43209 37136 ft 551 kts 108°
2026-02-19 08:51 36.63263 129.52397 37161 ft 551 kts 108°
2026-02-19 08:51 36.61204 129.61518 37164 ft 550 kts 108°
2026-02-19 08:52 36.59124 129.70692 37165 ft 550 kts 108°
2026-02-19 08:52 36.55990 129.84447 37167 ft 550 kts 109°
2026-02-19 08:53 36.53890 129.93625 37169 ft 551 kts 109°
2026-02-19 08:53 36.51797 130.02734 37176 ft 552 kts 109°
2026-02-19 08:54 36.48615 130.16513 37175 ft 553 kts 109°
2026-02-19 08:55 36.45412 130.30307 37177 ft 554 kts 109°
2026-02-19 08:56 36.42183 130.44133 37182 ft 556 kts 109°
2026-02-19 08:56 36.38933 130.57971 37181 ft 557 kts 109°
2026-02-19 08:57 36.36766 130.67150 37181 ft 557 kts 109°
2026-02-19 08:57 36.34579 130.76380 37183 ft 558 kts 109°
2026-02-19 08:58 36.32383 130.85614 37183 ft 558 kts 109°
2026-02-19 08:58 36.30176 130.94860 37184 ft 558 kts 109°
2026-02-19 08:59 36.27966 131.04084 37186 ft 558 kts 109°
2026-02-19 08:59 36.25746 131.13310 37184 ft 558 kts 109°
2026-02-19 09:00 36.22405 131.27136 37187 ft 558 kts 110°
2026-02-19 09:01 36.20168 131.36350 37194 ft 559 kts 110°
2026-02-19 09:01 36.17936 131.45509 37194 ft 559 kts 110°
2026-02-19 09:02 36.15682 131.54722 37192 ft 559 kts 110°
2026-02-19 09:02 36.13417 131.63948 37194 ft 560 kts 110°
2026-02-19 09:03 36.11141 131.73183 37203 ft 561 kts 110°
2026-02-19 09:03 36.08870 131.82364 37199 ft 562 kts 110°
2026-02-19 09:04 36.06573 131.91617 37202 ft 563 kts 110°
2026-02-19 09:04 36.03101 132.05536 37204 ft 565 kts 110°
2026-02-19 09:05 36.00773 132.14829 37210 ft 566 kts 110°
2026-02-19 09:05 35.98435 132.24126 37225 ft 567 kts 110°
2026-02-19 09:06 35.96083 132.33447 37217 ft 568 kts 110°
2026-02-19 09:06 35.93742 132.42688 37223 ft 568 kts 110°
2026-02-19 09:07 35.91379 132.51985 37222 ft 567 kts 110°
2026-02-19 09:07 35.89011 132.61270 37219 ft 567 kts 110°
2026-02-19 09:08 35.85449 132.75166 37224 ft 565 kts 110°
2026-02-19 09:09 35.83073 132.84396 37229 ft 564 kts 110°
2026-02-19 09:09 35.80694 132.93603 37230 ft 564 kts 110°
2026-02-19 09:10 35.78310 133.02795 37235 ft 563 kts 110°
2026-02-19 09:10 35.75929 133.11948 37234 ft 563 kts 110°
2026-02-19 09:11 35.73933 133.19594 37241 ft 563 kts 110°
2026-02-19 09:11 35.71525 133.28787 37242 ft 564 kts 111°
2026-02-19 09:12 35.69109 133.37980 37242 ft 564 kts 111°
2026-02-19 09:12 35.65485 133.51711 37249 ft 565 kts 111°
2026-02-19 09:13 35.63045 133.60916 37249 ft 566 kts 111°
2026-02-19 09:13 35.60596 133.70121 37253 ft 567 kts 111°
2026-02-19 09:14 35.58138 133.79330 37253 ft 567 kts 111°
2026-02-19 09:14 35.55667 133.88552 37248 ft 568 kts 111°
2026-02-19 09:15 35.53193 133.97757 37245 ft 568 kts 111°
2026-02-19 09:15 35.50726 134.06906 37239 ft 569 kts 111°
2026-02-19 09:16 35.46980 134.20736 37241 ft 569 kts 111°
2026-02-19 09:17 35.44470 134.29962 37246 ft 570 kts 111°
2026-02-19 09:17 35.41951 134.39188 37244 ft 571 kts 111°
2026-02-19 09:18 35.39421 134.48425 37251 ft 571 kts 111°
2026-02-19 09:18 35.36891 134.57630 37243 ft 571 kts 111°
2026-02-19 09:19 35.34342 134.66876 37241 ft 571 kts 111°
2026-02-19 09:19 35.31811 134.76025 37248 ft 571 kts 112°
2026-02-19 09:20 35.29253 134.85237 37257 ft 571 kts 112°
2026-02-19 09:20 35.25403 134.99048 37253 ft 572 kts 112°
2026-02-19 09:21 35.22827 135.08249 37256 ft 572 kts 112°
2026-02-19 09:21 35.20245 135.17441 37254 ft 572 kts 112°
2026-02-19 09:22 35.17652 135.26644 37256 ft 572 kts 112°
2026-02-19 09:22 35.15053 135.35834 37254 ft 572 kts 112°
2026-02-19 09:23 35.12447 135.45022 37249 ft 572 kts 112°
2026-02-19 09:23 35.09834 135.54202 37246 ft 573 kts 112°
2026-02-19 09:24 35.05888 135.68013 37238 ft 574 kts 112°
2026-02-19 09:25 35.03262 135.77168 37238 ft 574 kts 112°
2026-02-19 09:25 35.00940 135.86513 37223 ft 577 kts 103°
2026-02-19 09:26 34.99406 135.96139 37232 ft 578 kts 102°
2026-02-19 09:26 34.97929 136.05729 37245 ft 579 kts 102°
2026-02-19 09:27 34.96375 136.15373 37223 ft 579 kts 103°
2026-02-19 09:27 34.94782 136.24999 37225 ft 580 kts 103°
2026-02-19 09:28 34.93177 136.34660 37213 ft 581 kts 103°
2026-02-19 09:28 34.90769 136.49130 37194 ft 582 kts 103°
2026-02-19 09:29 34.89160 136.58745 37186 ft 583 kts 103°
2026-02-19 09:29 34.87536 136.68436 37187 ft 583 kts 103°
2026-02-19 09:30 34.85914 136.78124 37193 ft 584 kts 103°
2026-02-19 09:30 34.84284 136.87805 37180 ft 584 kts 103°
2026-02-19 09:31 34.82736 136.97512 37178 ft 584 kts 99°
2026-02-19 09:31 34.81638 137.07300 37177 ft 584 kts 97°
2026-02-19 09:32 34.80073 137.22013 37162 ft 584 kts 98°
2026-02-19 09:33 34.78972 137.31808 37154 ft 584 kts 98°
2026-02-19 09:33 34.77860 137.41533 37152 ft 584 kts 98°
2026-02-19 09:34 34.76736 137.51336 36995 ft 585 kts 98°
2026-02-19 09:34 34.76174 137.56224 36597 ft 583 kts 98°
2026-02-19 09:34 34.75613 137.61091 36169 ft 578 kts 98°
2026-02-19 09:34 34.75051 137.65945 35764 ft 578 kts 98°
2026-02-19 09:35 34.74503 137.70779 35306 ft 573 kts 97°
2026-02-19 09:35 34.74024 137.75548 34866 ft 567 kts 96°
2026-02-19 09:35 34.73584 137.80294 34413 ft 562 kts 95°
2026-02-19 09:35 34.73155 137.84995 33927 ft 558 kts 95°
2026-02-19 09:36 34.72717 137.89661 33399 ft 545 kts 96°
2026-02-19 09:36 34.71854 137.98502 32560 ft 518 kts 96°
2026-02-19 09:36 34.71457 138.02844 32125 ft 513 kts 94°
2026-02-19 09:37 34.71323 138.07090 31716 ft 507 kts 88°
2026-02-19 09:37 34.71345 138.11328 31317 ft 502 kts 87°
2026-02-19 09:37 34.71396 138.15609 30907 ft 497 kts 87°
2026-02-19 09:37 34.71446 138.19732 30511 ft 492 kts 87°
2026-02-19 09:38 34.71486 138.23837 30109 ft 488 kts 88°
2026-02-19 09:38 34.71514 138.27925 29640 ft 483 kts 88°
2026-02-19 09:38 34.71533 138.31985 29224 ft 477 kts 88°
2026-02-19 09:38 34.71546 138.35986 28825 ft 471 kts 88°
2026-02-19 09:39 34.71555 138.39951 28433 ft 465 kts 88°
2026-02-19 09:39 34.71564 138.43861 28037 ft 460 kts 88°
2026-02-19 09:39 34.71572 138.47729 27655 ft 455 kts 88°
2026-02-19 09:39 34.71579 138.51558 27259 ft 450 kts 88°
2026-02-19 09:40 34.71585 138.55349 26881 ft 446 kts 88°
2026-02-19 09:40 34.71595 138.62799 26134 ft 437 kts 88°
2026-02-19 09:40 34.71598 138.66464 25756 ft 433 kts 88°
2026-02-19 09:41 34.71600 138.70111 25388 ft 430 kts 88°
2026-02-19 09:41 34.71601 138.73730 25014 ft 426 kts 88°
2026-02-19 09:41 34.71601 138.77325 24657 ft 423 kts 88°
2026-02-19 09:41 34.71600 138.80889 24275 ft 421 kts 88°
2026-02-19 09:42 34.71588 138.84440 23920 ft 418 kts 88°
2026-02-19 09:42 34.71569 138.87962 23506 ft 415 kts 88°
2026-02-19 09:42 34.71549 138.91410 23107 ft 412 kts 88°
2026-02-19 09:42 34.71529 138.94878 22728 ft 409 kts 88°
2026-02-19 09:43 34.71510 138.98324 22354 ft 405 kts 88°
2026-02-19 09:43 34.71490 139.01735 21991 ft 401 kts 88°
2026-02-19 09:43 34.71470 139.04933 21649 ft 398 kts 88°
2026-02-19 09:43 34.71450 139.08133 21301 ft 395 kts 88°
2026-02-19 09:44 34.71429 139.11451 20947 ft 391 kts 88°
2026-02-19 09:44 34.71384 139.18011 20231 ft 385 kts 87°
2026-02-19 09:44 34.71361 139.21263 19879 ft 383 kts 87°
2026-02-19 09:45 34.71346 139.23386 19643 ft 381 kts 87°
2026-02-19 09:45 34.71319 139.26900 19258 ft 378 kts 87°
2026-02-19 09:45 34.71295 139.30094 18900 ft 376 kts 87°
2026-02-19 09:45 34.71270 139.33226 18552 ft 374 kts 87°
2026-02-19 09:46 34.71243 139.36378 18171 ft 372 kts 87°
2026-02-19 09:46 34.71230 139.39513 17778 ft 366 kts 83°
2026-02-19 09:46 34.71723 139.42479 17398 ft 351 kts 60°
2026-02-19 09:46 34.72858 139.45030 17081 ft 341 kts 52°
2026-02-19 09:47 34.74096 139.47511 16730 ft 347 kts 51°
2026-02-19 09:47 34.75378 139.50052 16370 ft 357 kts 51°
2026-02-19 09:47 34.76667 139.52627 15994 ft 360 kts 52°
2026-02-19 09:47 34.77955 139.55229 15604 ft 358 kts 52°
2026-02-19 09:48 34.79231 139.57829 15233 ft 356 kts 52°
2026-02-19 09:48 34.81744 139.62980 14486 ft 351 kts 53°
2026-02-19 09:48 34.82987 139.65531 14121 ft 350 kts 53°
2026-02-19 09:49 34.84231 139.68085 13585 ft 352 kts 53°
2026-02-19 09:49 34.85470 139.70632 13110 ft 352 kts 53°
2026-02-19 09:49 34.86710 139.73185 12712 ft 349 kts 53°
2026-02-19 09:49 34.87939 139.75718 12339 ft 346 kts 53°
2026-02-19 09:50 34.89161 139.78237 11963 ft 343 kts 53°
2026-02-19 09:50 34.90370 139.80731 11597 ft 340 kts 54°
2026-02-19 09:50 34.91567 139.83202 11243 ft 337 kts 54°
2026-02-19 09:50 34.92780 139.85617 10869 ft 327 kts 47°
2026-02-19 09:51 34.94411 139.87401 10526 ft 308 kts 22°
2026-02-19 09:51 34.96375 139.88214 10270 ft 291 kts
2026-02-19 09:51 34.98331 139.88360 10164 ft 273 kts 349°
2026-02-19 09:51 35.00139 139.87925 10035 ft 258 kts 341°
2026-02-19 09:52 35.01844 139.87373 9902 ft 250 kts 340°
2026-02-19 09:52 35.05159 139.86280 9278 ft 247 kts 340°
2026-02-19 09:52 35.06810 139.85742 8986 ft 244 kts 341°
2026-02-19 09:53 35.08330 139.85251 8728 ft 242 kts 341°
2026-02-19 09:53 35.09959 139.84728 8398 ft 242 kts 341°
2026-02-19 09:53 35.11582 139.84208 8044 ft 243 kts 341°
2026-02-19 09:54 35.13214 139.83688 7701 ft 244 kts 342°
2026-02-19 09:54 35.14855 139.83167 7375 ft 245 kts 342°
2026-02-19 09:54 35.16508 139.82642 7046 ft 246 kts 342°
2026-02-19 09:54 35.18160 139.82118 6724 ft 246 kts 342°
2026-02-19 09:55 35.19828 139.81658 6348 ft 246 kts 354°
2026-02-19 09:55 35.21527 139.81998 5927 ft 250 kts 19°
2026-02-19 09:55 35.23115 139.82789 5600 ft 250 kts 21°
2026-02-19 09:55 35.24710 139.83584 5218 ft 244 kts 21°
2026-02-19 09:56 35.26230 139.84342 4837 ft 237 kts 22°
2026-02-19 09:56 35.29181 139.85818 4148 ft 224 kts 22°
2026-02-19 09:56 35.30625 139.86542 3853 ft 224 kts 22°
2026-02-19 09:57 35.32061 139.87262 3545 ft 223 kts 22°
2026-02-19 09:57 35.33011 139.87739 3361 ft 221 kts 22°
2026-02-19 09:57 35.34425 139.88448 3098 ft 218 kts 22°
2026-02-19 09:57 35.35823 139.89150 2846 ft 215 kts 21°
2026-02-19 09:58 35.37235 139.89569 2588 ft 207 kts 354°
2026-02-19 09:58 35.38578 139.89041 2424 ft 204 kts 335°
2026-02-19 09:58 35.39881 139.88300 2258 ft 207 kts 333°
2026-02-19 09:58 35.41141 139.87459 2088 ft 203 kts 330°
2026-02-19 09:59 35.42347 139.86606 2023 ft 199 kts 329°
2026-02-19 09:59 35.43535 139.85761 1972 ft 194 kts 329°
2026-02-19 09:59 35.44676 139.84950 2017 ft 186 kts 330°
2026-02-19 09:59 35.45783 139.84164 1896 ft 183 kts 330°
2026-02-19 10:00 35.46850 139.83405 1671 ft 169 kts 330°
2026-02-19 10:00 35.48736 139.82065 1173 ft 142 kts 330°
2026-02-19 10:00 35.49586 139.81461 1021 ft 145 kts 330°
2026-02-19 10:01 35.50454 139.80843 806 ft 143 kts 330°
2026-02-19 10:01 35.51299 139.80235 591 ft 138 kts 329°
2026-02-19 10:01 35.52118 139.79654 417 ft 135 kts 330°
2026-02-19 10:01 35.52930 139.79079 223 ft 134 kts 330°
2026-02-19 10:02 35.53741 139.78508 52 ft 135 kts 330°
2026-02-19 10:02 35.54503 139.77969 30 ft 107 kts 330°
2026-02-19 10:02 35.54984 139.77626 32 ft 53 kts 329°
2026-02-19 10:02 35.55186 139.77465 27 ft 28 kts 317°
2026-02-19 10:03 35.55279 139.77322 30 ft 10 kts 300°
2026-02-19 10:03 35.55314 139.77248 27 ft 10 kts 300°
2026-02-19 10:03 35.55348 139.77173 29 ft 10 kts 299°
2026-02-19 10:03 35.55335 139.77095 26 ft 10 kts 236°
2026-02-19 10:04 35.55285 139.77043 27 ft 10 kts 186°
2026-02-19 10:04 35.55159 139.77119 29 ft 10 kts 150°
2026-02-19 10:04 35.55096 139.77164 30 ft 11 kts 149°
2026-02-19 10:05 35.55023 139.77217 34 ft 15 kts 149°
2026-02-19 10:05 35.54907 139.77300 29 ft 25 kts 150°
2026-02-19 10:05 35.54751 139.77408 28 ft 25 kts 150°
2026-02-19 10:05 35.54601 139.77514 30 ft 24 kts 150°
2026-02-19 10:06 35.54492 139.77590 31 ft 12 kts 161°
2026-02-19 10:06 35.54436 139.77550 28 ft 10 kts 239°
2026-02-19 10:06 35.54401 139.77478 28 ft 10 kts 240°
2026-02-19 10:06 35.54367 139.77406 28 ft 10 kts 240°
2026-02-19 10:07 35.54330 139.77337 32 ft 10 kts 229°
2026-02-19 10:07 35.54291 139.77269 26 ft 10 kts 238°
2026-02-19 10:07 35.54272 139.77227 28 ft 1 kts 239°
2026-02-19 10:07 35.54267 139.77218 28 ft 1 kts 239°
2026-02-19 10:08 35.54266 139.77215 28 ft 0 kts 239°